Latitude: N 50° 09' 49" Longitude: W 05° 11' 53" Elevation: 168m ASL

There are 12 visitors online

Adverts

<- Previous Day | Today | Next Day ->

All Data for 15 November 2018

Time
A - D
Temp
A - D
Dew Point
A - D
Humidity
A - D
Pressure
A - D
Wind
A - D
Wind Dir Gust
A - D
Rain Rate
A - D
Rain Total
00:00 11.8 11.7 99 1017.3 12.1 S 17.4 0.0 0.0
00:01 11.8 11.7 99 1017.4 12.1 S 17.4 0.0 0.0
00:02 11.8 11.7 99 1017.2 16.8 SE 17.4 0.0 0.0
00:03 11.8 11.7 99 1017.2 12.1 S 17.4 0.0 0.0
00:05 11.8 11.7 99 1017.3 13.0 SE 17.4 0.0 0.0
00:06 11.8 11.7 99 1017.3 14.5 S 16.8 0.0 0.0
00:07 11.8 11.7 99 1017.2 14.5 S 16.8 0.0 0.0
00:08 11.8 11.7 99 1017.3 17.4 S 17.4 0.0 0.0
00:09 11.8 11.7 99 1017.2 16.8 E 17.4 0.0 0.0
00:10 11.8 11.7 99 1017.2 19.0 SW 19.0 0.0 0.0
00:11 11.8 11.7 99 1017.4 13.6 E 19.0 0.0 0.0
00:12 11.8 11.7 99 1017.2 13.0 SE 19.0 0.0 0.0
00:13 11.8 11.7 99 1017.2 13.0 SE 19.0 0.0 0.0
00:14 11.8 11.7 99 1017.5 16.8 S 19.0 0.0 0.0
00:15 11.8 11.7 99 1017.4 16.8 SE 19.0 0.0 0.0
00:16 11.8 11.7 99 1017.4 18.3 S 19.0 0.0 0.0
00:17 11.8 11.7 99 1017.5 19.0 SE 19.0 0.0 0.0
00:18 11.8 11.7 99 1017.3 17.4 S 19.0 0.0 0.0
00:19 11.8 11.7 99 1017.4 17.4 S 19.0 0.0 0.0
00:20 11.8 11.7 99 1017.3 14.5 SE 19.0 0.0 0.0
00:21 11.8 11.7 99 1017.3 15.2 S 19.0 0.0 0.0
00:22 11.8 11.7 99 1017.3 12.1 S 19.0 0.0 0.0
00:24 11.8 11.7 99 1017.3 9.8 S 19.0 0.0 0.0
00:25 11.8 11.7 99 1017.3 11.4 SE 19.0 0.0 0.0
00:26 11.8 11.7 99 1017.3 11.4 S 19.0 0.0 0.0
00:27 11.7 11.6 99 1017.3 13.0 S 17.4 0.0 0.0
00:28 11.7 11.6 99 1017.4 14.5 S 17.4 0.0 0.0
00:29 11.7 11.6 99 1017.3 13.0 SE 15.2 0.0 0.0
00:30 11.7 11.6 99 1017.3 11.4 S 15.2 0.0 0.0
00:31 11.7 11.6 99 1017.4 13.0 S 14.5 0.0 0.0
00:32 11.7 11.6 99 1017.4 13.0 S 14.5 0.0 0.0
00:33 11.7 11.6 99 1017.3 13.0 S 14.5 0.0 0.0
00:34 11.7 11.6 99 1017.3 13.0 S 14.5 0.0 0.0
00:35 11.7 11.6 99 1017.2 10.7 SE 14.5 0.0 0.0
00:36 11.8 11.7 99 1017.3 13.6 S 14.5 0.0 0.0
00:37 11.7 11.6 99 1017.3 15.2 S 15.2 0.0 0.0
00:38 11.7 11.6 99 1017.3 15.2 S 15.2 0.0 0.0
00:39 11.7 11.6 99 1017.2 13.6 SE 15.2 0.0 0.0
00:40 11.7 11.6 99 1017.3 11.4 SE 15.2 0.0 0.0
00:41 11.7 11.6 99 1017.2 12.1 SE 15.2 0.0 0.0
00:43 11.7 11.6 99 1017.3 12.1 S 15.2 0.0 0.0
00:44 11.7 11.6 99 1017.3 11.4 SE 15.2 0.0 0.0
00:45 11.7 11.6 99 1017.4 10.7 S 15.2 0.0 0.0
00:46 11.7 11.6 99 1017.3 14.5 SE 15.2 0.0 0.0
00:47 11.7 11.6 99 1017.3 15.9 SE 15.9 0.0 0.0
00:48 11.7 11.6 99 1017.3 11.4 S 15.9 0.0 0.0
00:49 11.7 11.6 99 1017.2 13.0 SE 15.9 0.0 0.0
00:50 11.7 11.6 99 1017.3 9.8 SE 15.9 0.0 0.0
00:51 11.7 11.6 99 1017.4 15.9 S 15.9 0.0 0.0
00:52 11.6 11.5 99 1017.2 11.4 SE 15.9 0.0 0.0
00:53 11.7 11.6 99 1017.1 13.0 S 15.9 0.0 0.0
00:54 11.7 11.6 99 1017.2 14.5 S 15.9 0.0 0.0
00:55 11.6 11.5 99 1017.3 11.4 S 15.9 0.0 0.0
00:56 11.7 11.6 99 1017.2 10.7 SE 15.9 0.0 0.0
00:57 11.6 11.5 99 1017.2 11.4 SE 15.9 0.0 0.0
00:58 11.6 11.5 99 1017.3 13.6 ESE 15.9 0.0 0.0
00:59 11.6 11.5 99 1017.3 11.4 SE 15.9 0.0 0.0
01:00 11.6 11.5 99 1017.3 16.8 SE 16.8 0.0 0.0
01:01 11.6 11.5 99 1017.2 16.8 SE 16.8 0.0 0.0
01:02 11.6 11.5 99 1017.3 15.2 S 16.8 0.0 0.0
01:03 11.6 11.5 99 1017.2 15.2 SE 16.8 0.0 0.0
01:04 11.6 11.5 99 1017.3 11.4 SW 16.8 0.0 0.0
01:05 11.6 11.5 99 1017.3 14.5 S 16.8 0.0 0.0
01:06 11.6 11.5 99 1017.3 14.5 S 16.8 0.0 0.0
01:07 11.6 11.5 99 1017.3 13.6 S 16.8 0.0 0.0
01:08 11.6 11.5 99 1017.2 11.4 SE 16.8 0.0 0.0
01:09 11.6 11.5 99 1017.2 13.0 S 16.8 0.0 0.0
01:11 11.6 11.5 99 1017.3 12.1 SE 16.8 0.0 0.0
01:12 11.6 11.5 99 1017.2 13.0 SE 16.8 0.0 0.0
01:13 11.6 11.5 99 1017.4 15.2 S 16.8 0.0 0.0
01:14 11.6 11.5 99 1017.1 18.3 S 18.3 0.0 0.0
01:15 11.6 11.5 99 1017.1 13.0 S 18.3 0.0 0.0
01:16 11.6 11.5 99 1017.3 16.8 S 18.3 0.0 0.0
01:17 11.6 11.5 99 1017.2 9.8 S 18.3 0.0 0.0
01:18 11.6 11.5 99 1017.2 9.8 S 18.3 0.0 0.0
01:19 11.6 11.5 99 1017.1 10.7 S 18.3 0.0 0.0
01:20 11.6 11.5 99 1017.2 11.4 S 18.3 0.0 0.0
01:21 11.6 11.5 99 1017.2 11.4 SW 18.3 0.0 0.0
01:22 11.6 11.5 99 1017.2 9.8 SE 18.3 0.0 0.0
01:23 11.6 11.5 99 1017.2 10.7 S 18.3 0.0 0.0
01:24 11.6 11.5 99 1017.2 10.7 SE 18.3 0.0 0.0
01:25 11.6 11.5 99 1017.1 12.1 S 16.8 0.0 0.0
01:26 11.6 11.5 99 1017.2 12.1 SE 16.8 0.0 0.0
01:27 11.6 11.5 99 1017.3 11.4 SE 13.0 0.0 0.0
01:28 11.6 11.5 99 1017.2 12.1 S 13.0 0.0 0.0
01:30 11.6 11.5 99 1017.2 13.6 S 13.6 0.0 0.0
01:31 11.6 11.5 99 1017.1 9.8 N 13.6 0.0 0.0
01:32 11.6 11.5 99 1017.2 10.7 SE 13.6 0.0 0.0
01:33 11.6 11.5 99 1017.3 13.6 S 13.6 0.0 0.0
01:34 11.6 11.5 99 1017.2 10.7 SE 13.6 0.0 0.0
01:35 11.6 11.5 99 1017.3 13.6 S 13.6 0.0 0.0
01:36 11.6 11.5 99 1017.2 13.0 SE 13.6 0.0 0.0
01:37 11.6 11.5 99 1017.3 13.6 S 13.6 0.0 0.0
01:38 11.6 11.5 99 1017.2 13.6 S 13.6 0.0 0.0
01:39 11.6 11.5 99 1017.3 12.1 SE 13.6 0.0 0.0
01:40 11.6 11.5 99 1017.1 16.8 SE 16.8 0.0 0.0
01:41 11.6 11.5 99 1017.2 14.5 SE 16.8 0.0 0.0
01:42 11.6 11.5 99 1017.0 13.0 SE 16.8 0.0 0.0
01:43 11.6 11.5 99 1017.2 12.1 S 16.8 0.0 0.0
01:44 11.6 11.5 99 1017.2 13.6 S 16.8 0.0 0.0
01:45 11.6 11.5 99 1017.2 7.6 SE 16.8 0.0 0.0
01:46 11.5 11.4 99 1017.1 12.1 SE 18.3 0.0 0.0
01:47 11.5 11.4 99 1017.0 10.7 S 18.3 0.0 0.0
01:49 11.5 11.4 99 1017.2 16.8 SE 18.3 0.0 0.0
01:50 11.5 11.4 99 1017.1 13.0 SE 18.3 0.0 0.0
01:51 11.5 11.4 99 1017.0 13.0 SE 18.3 0.0 0.0
01:52 11.5 11.4 99 1017.1 11.4 SE 18.3 0.0 0.0
01:53 11.5 11.4 99 1017.0 11.4 S 18.3 0.0 0.0
01:54 11.5 11.4 99 1017.0 13.0 S 18.3 0.0 0.0
01:55 11.5 11.4 99 1017.0 16.8 SE 18.3 0.0 0.0
01:56 11.5 11.4 99 1017.0 16.8 SE 16.8 0.0 0.0
01:57 11.5 11.4 99 1017.1 11.4 S 16.8 0.0 0.0
01:58 11.4 11.3 99 1017.2 14.5 S 16.8 0.0 0.0
01:59 11.4 11.3 99 1017.0 17.4 S 17.4 0.0 0.0
02:00 11.4 11.3 99 1017.1 12.1 S 17.4 0.0 0.0
02:01 11.4 11.3 99 1017.2 15.9 S 17.4 0.0 0.0
02:02 11.4 11.3 99 1017.1 11.4 S 17.4 0.0 0.0
02:03 11.4 11.3 99 1017.1 12.1 S 17.4 0.0 0.0
02:04 11.4 11.3 99 1017.0 14.5 E 17.4 0.0 0.0
02:05 11.4 11.3 99 1017.1 16.8 S 17.4 0.0 0.0
02:06 11.4 11.3 99 1016.9 13.0 S 17.4 0.0 0.0
02:08 11.4 11.3 99 1017.1 12.1 SE 17.4 0.0 0.0
02:09 11.4 11.3 99 1016.9 15.2 SE 16.8 0.0 0.0
02:10 11.4 11.3 99 1017.0 17.4 SE 17.4 0.0 0.0
02:11 11.4 11.3 99 1017.0 13.6 SE 17.4 0.0 0.0
02:12 11.4 11.3 99 1016.9 13.6 E 17.4 0.0 0.0
02:13 11.4 11.3 99 1017.0 9.8 NE 17.4 0.0 0.0
02:14 11.4 11.3 99 1017.0 11.4 SSE 17.4 0.0 0.0
02:15 11.4 11.3 99 1017.1 14.5 SE 17.4 0.0 0.0
02:16 11.4 11.3 99 1017.1 15.9 E 17.4 0.0 0.0
02:17 11.4 11.3 99 1017.1 14.5 S 17.4 0.0 0.0
02:18 11.4 11.3 99 1017.0 15.2 S 17.4 0.0 0.0
02:19 11.3 11.2 99 1017.0 15.9 S 17.4 0.0 0.0
02:20 11.3 11.2 99 1017.0 14.5 S 17.4 0.0 0.0
02:21 11.3 11.2 99 1017.0 11.4 S 16.8 0.0 0.0
02:22 11.3 11.2 99 1017.0 13.0 S 16.8 0.0 0.0
02:23 11.3 11.2 99 1016.9 13.6 S 16.8 0.0 0.0
02:24 11.3 11.2 99 1016.9 10.7 SE 16.8 0.0 0.0
02:25 11.3 11.2 99 1016.9 10.7 SE 16.8 0.0 0.0
02:27 11.3 11.2 99 1017.0 13.6 S 16.8 0.0 0.0
02:28 11.3 11.2 99 1016.8 13.6 SE 16.8 0.0 0.0
02:29 11.3 11.2 99 1016.9 14.5 S 16.8 0.0 0.0
02:30 11.3 11.2 99 1016.8 12.1 S 16.8 0.0 0.0
02:31 11.3 11.2 99 1016.9 14.5 S 16.8 0.0 0.0
02:32 11.3 11.2 99 1016.9 13.0 S 16.8 0.0 0.0
02:33 11.3 11.2 99 1016.7 14.5 SE 16.8 0.0 0.0
02:34 11.3 11.2 99 1016.9 13.6 S 16.8 0.0 0.0
02:35 11.3 11.2 99 1017.0 13.6 S 14.5 0.0 0.0
02:36 11.3 11.2 99 1016.9 13.0 SE 14.5 0.0 0.0
02:37 11.3 11.2 99 1016.8 15.2 S 15.2 0.0 0.0
02:38 11.3 11.2 99 1016.8 12.1 SE 15.2 0.0 0.0
02:39 11.3 11.2 99 1016.8 12.1 ESE 15.2 0.0 0.0
02:40 11.3 11.2 99 1016.8 15.2 SE 15.2 0.0 0.0
02:41 11.3 11.2 99 1016.7 10.7 S 15.2 0.0 0.0
02:42 11.3 11.2 99 1016.8 9.8 S 15.2 0.0 0.0
02:43 11.3 11.2 99 1016.7 13.6 SE 15.2 0.0 0.0
02:44 11.3 11.2 99 1016.7 13.6 SE 15.2 0.0 0.0
02:46 11.3 11.2 99 1016.7 10.7 S 15.2 0.0 0.0
02:47 11.3 11.2 99 1016.7 15.2 NE 15.9 0.0 0.0
02:48 11.3 11.2 99 1016.8 10.7 SSW 15.9 0.0 0.0
02:49 11.3 11.2 99 1016.7 9.8 S 15.9 0.0 0.0
02:50 11.3 11.2 99 1016.8 13.0 SE 15.9 0.0 0.0
02:51 11.3 11.2 99 1016.7 13.0 S 15.9 0.0 0.0
02:52 11.3 11.2 99 1016.6 9.8 SE 15.9 0.0 0.0
02:53 11.3 11.2 99 1016.6 9.8 SE 15.9 0.0 0.0
02:54 11.3 11.2 99 1016.8 10.7 SE 15.9 0.0 0.0
02:55 11.3 11.2 99 1016.6 16.8 SE 16.8 0.0 0.0
02:56 11.3 11.2 99 1016.5 14.5 SSE 16.8 0.0 0.0
02:57 11.3 11.2 99 1016.5 10.7 SE 16.8 0.0 0.0
02:58 11.3 11.2 99 1016.6 15.2 SE 16.8 0.0 0.0
02:59 11.3 11.2 99 1016.7 14.5 E 16.8 0.0 0.0
03:00 11.3 11.2 99 1016.7 14.5 SE 16.8 0.0 0.0
03:01 11.4 11.3 99 1016.6 15.2 SE 16.8 0.0 0.0
03:02 11.3 11.2 99 1016.7 13.0 SE 16.8 0.0 0.0
03:03 11.4 11.3 99 1016.6 15.2 S 19.0 0.0 0.0
03:05 11.4 11.3 99 1016.6 13.6 SE 19.0 0.0 0.0
03:06 11.4 11.3 99 1016.6 10.7 S 19.0 0.0 0.0
03:07 11.4 11.3 99 1016.6 9.8 SE 19.0 0.0 0.0
03:08 11.5 11.4 99 1016.6 12.1 SE 19.0 0.0 0.0
03:09 11.5 11.4 99 1016.8 16.8 SE 19.0 0.0 0.0
03:10 11.5 11.4 99 1016.6 13.6 S 19.0 0.0 0.0
03:11 11.5 11.4 99 1016.5 16.8 SE 19.0 0.0 0.0
03:12 11.5 11.4 99 1016.6 15.2 SE 19.0 0.0 0.0
03:13 11.3 11.2 99 1016.6 13.6 SE 19.0 0.0 0.0
03:14 11.5 11.4 99 1016.5 11.4 SE 16.8 0.0 0.0
03:15 11.3 11.2 99 1016.7 9.8 SE 16.8 0.0 0.0
03:16 11.3 11.2 99 1016.4 11.4 SE 16.8 0.0 0.0
03:17 11.4 11.3 99 1016.7 12.1 SE 16.8 0.0 0.0
03:18 11.3 11.2 99 1016.5 19.0 S 19.0 0.0 0.0
03:19 11.3 11.2 99 1016.6 13.6 SE 19.0 0.0 0.0
03:20 11.3 11.2 99 1016.5 14.5 SE 19.0 0.0 0.0
03:21 11.3 11.2 99 1016.6 15.2 SE 19.0 0.0 0.0
03:22 11.4 11.3 99 1016.6 10.7 SE 19.0 0.0 0.0
03:24 11.5 11.4 99 1016.6 10.7 SE 19.0 0.0 0.0
03:25 11.5 11.4 99 1016.6 11.4 SE 19.0 0.0 0.0
03:26 11.4 11.3 99 1016.5 14.5 SE 19.0 0.0 0.0
03:27 11.4 11.3 99 1016.5 15.2 S 19.0 0.0 0.0
03:28 11.4 11.3 99 1016.6 13.0 S 15.2 0.0 0.0
03:29 11.5 11.4 99 1016.7 14.5 SE 15.2 0.0 0.0
03:30 11.5 11.4 99 1016.8 13.0 SE 15.2 0.0 0.0
03:31 11.4 11.3 99 1016.8 13.6 S 15.2 0.0 0.0
03:32 11.6 11.5 99 1016.7 10.7 SE 15.2 0.0 0.0
03:33 11.4 11.3 99 1016.8 15.9 SE 15.9 0.0 0.0
03:34 11.4 11.3 99 1016.7 14.5 SE 15.9 0.0 0.0
03:35 11.4 11.3 99 1016.8 11.4 SE 15.9 0.0 0.0
03:36 11.4 11.3 99 1016.7 10.7 SE 15.9 0.0 0.0
03:37 11.4 11.3 99 1016.8 14.5 SE 15.9 0.0 0.0
03:38 11.4 11.3 99 1016.8 12.1 SE 15.9 0.0 0.0
03:39 11.4 11.3 99 1016.8 13.0 SE 15.9 0.0 0.0
03:41 11.3 11.2 99 1016.8 14.5 SE 15.9 0.0 0.0
03:43 11.4 11.3 99 1016.9 13.0 SE 15.2 0.0 0.0
03:44 11.3 11.2 99 1016.8 12.1 SE 15.2 0.0 0.0
03:45 11.3 11.2 99 1016.8 11.4 E 15.2 0.0 0.0
03:46 11.3 11.2 99 1016.7 15.2 SE 15.2 0.0 0.0
03:47 11.3 11.2 99 1016.7 12.1 S 15.2 0.0 0.0
03:48 11.5 11.4 99 1016.7 10.7 S 15.2 0.0 0.0
03:49 11.3 11.2 99 1016.8 11.4 S 15.2 0.0 0.0
03:50 11.3 11.2 99 1016.8 11.4 S 15.2 0.0 0.0
03:51 11.3 11.2 99 1016.8 12.1 S 15.2 0.0 0.0
03:52 11.3 11.2 99 1016.8 11.4 SE 15.2 0.0 0.0
03:53 11.3 11.2 99 1016.8 13.0 E 15.2 0.0 0.0
03:54 11.3 11.2 99 1016.8 11.4 SE 15.2 0.0 0.0
03:55 11.3 11.2 99 1016.8 15.2 SE 15.2 0.0 0.0
03:56 11.4 11.3 99 1016.8 13.0 SW 15.2 0.0 0.0
03:57 11.3 11.2 99 1016.8 9.8 SE 15.2 0.0 0.0
03:58 11.4 11.3 99 1016.8 8.3 SE 15.2 0.0 0.0
03:59 11.3 11.2 99 1016.8 13.0 SE 15.2 0.0 0.0
04:00 11.3 11.2 99 1016.6 13.0 SE 15.2 0.0 0.0
04:02 11.3 11.2 99 1016.7 13.0 SE 15.2 0.0 0.0
04:03 11.3 11.2 99 1016.6 13.0 SE 15.2 0.0 0.0
04:04 11.3 11.2 99 1016.7 13.0 SE 15.2 0.0 0.0
04:05 11.3 11.2 99 1016.7 13.0 SE 15.2 0.0 0.0
04:06 11.3 11.2 99 1016.7 13.0 SE 15.2 0.0 0.0
04:07 11.3 11.2 99 1016.7 11.4 SE 15.2 0.0 0.0
04:08 11.3 11.2 99 1016.7 11.4 SE 15.2 0.0 0.0
04:09 11.3 11.2 99 1016.7 17.4 SE 17.4 0.0 0.0
04:10 11.3 11.2 99 1016.7 17.4 SE 17.4 0.0 0.0
04:11 11.3 11.2 99 1016.7 13.0 SE 17.4 0.0 0.0
04:12 11.3 11.2 99 1016.6 13.0 SE 17.4 0.0 0.0
04:13 11.3 11.2 99 1016.8 11.4 SE 17.4 0.0 0.0
04:14 11.3 11.2 99 1016.5 14.5 SE 17.4 0.0 0.0
04:15 11.3 11.2 99 1016.7 11.4 SE 17.4 0.0 0.0
04:16 11.3 11.2 99 1016.6 13.0 S 17.4 0.0 0.0
04:17 11.3 11.2 99 1016.7 12.1 SE 17.4 0.0 0.0
04:18 11.2 11.1 99 1016.7 13.6 SE 17.4 0.0 0.0
04:19 11.3 11.2 99 1016.5 10.7 S 14.5 0.0 0.0
04:21 11.2 11.1 99 1016.5 8.3 S 14.5 0.0 0.0
04:22 11.2 11.1 99 1016.6 13.0 SE 14.5 0.0 0.0
04:23 11.2 11.1 99 1016.5 13.0 SE 14.5 0.0 0.0
04:24 11.2 11.1 99 1016.6 12.1 SE 13.6 0.0 0.0
04:25 11.2 11.1 99 1016.5 10.7 E 13.6 0.0 0.0
04:26 11.2 11.1 99 1016.6 6.0 S 13.6 0.0 0.0
04:27 11.2 11.1 99 1016.6 6.0 S 13.6 0.0 0.0
04:28 11.2 11.1 99 1016.5 8.3 E 13.6 0.0 0.0
04:29 11.2 11.1 99 1016.4 11.4 SE 13.0 0.0 0.0
04:30 11.2 11.1 99 1016.5 12.1 SE 13.0 0.0 0.0
04:31 11.2 11.1 99 1016.5 12.1 S 13.0 0.0 0.0
04:32 11.2 11.1 99 1016.7 9.8 SE 13.0 0.0 0.0
04:33 11.2 11.1 99 1016.5 13.0 SE 13.0 0.0 0.0
04:34 11.2 11.1 99 1016.6 14.5 SE 14.5 0.0 0.0
04:35 11.2 11.1 99 1016.6 12.1 S 14.5 0.0 0.0
04:36 11.2 11.1 99 1016.4 13.0 S 14.5 0.0 0.0
04:37 11.2 11.1 99 1016.5 9.8 SE 14.5 0.0 0.0
04:38 11.2 11.1 99 1016.5 6.9 E 14.5 0.0 0.0
04:40 11.2 11.1 99 1016.6 9.8 SE 14.5 0.0 0.0
04:41 11.2 11.1 99 1016.5 10.7 SE 14.5 0.0 0.0
04:42 11.2 11.1 99 1016.6 9.8 SE 14.5 0.0 0.0
04:43 11.2 11.1 99 1016.6 12.1 E 14.5 0.0 0.0
04:44 11.2 11.1 99 1016.5 11.4 S 13.0 0.0 0.0
04:45 11.2 11.1 99 1016.5 11.4 S 13.0 0.0 0.0
04:46 11.2 11.1 99 1016.4 10.7 SE 13.0 0.0 0.0
04:47 11.2 11.1 99 1016.6 11.4 SE 12.1 0.0 0.0
04:48 11.2 11.1 99 1016.6 11.4 SE 12.1 0.0 0.0
04:49 11.2 11.1 99 1016.6 9.8 SE 12.1 0.0 0.0
04:50 11.2 11.1 99 1016.5 7.6 SE 12.1 0.0 0.0
04:51 11.2 11.1 99 1016.5 13.0 SE 15.2 0.0 0.0
04:52 11.2 11.1 99 1016.5 12.1 SE 15.2 0.0 0.0
04:53 11.2 11.1 99 1016.6 13.0 SE 15.2 0.0 0.0
04:54 11.2 11.1 99 1016.6 13.0 SE 15.2 0.0 0.0
04:55 11.2 11.1 99 1016.6 9.2 SE 15.2 0.0 0.0
04:56 11.2 11.1 99 1016.5 12.1 S 15.2 0.0 0.0
04:57 11.2 11.1 99 1016.5 9.2 SE 15.2 0.0 0.0
04:59 11.2 11.1 99 1016.5 9.8 SE 15.2 0.0 0.0
05:00 11.2 11.1 99 1016.4 9.8 SE 13.0 0.0 0.0
05:01 11.2 11.1 99 1016.6 9.8 SE 13.0 0.0 0.0
05:02 11.2 11.1 99 1016.5 9.8 SE 13.0 0.0 0.0
05:03 11.2 11.1 99 1016.4 9.8 SE 13.0 0.0 0.0
05:04 11.2 11.1 99 1016.6 9.8 SE 12.1 0.0 0.0
05:05 11.2 11.1 99 1016.6 15.2 SE 15.2 0.0 0.0
05:06 11.2 11.1 99 1016.7 11.4 SE 15.2 0.0 0.0
05:07 11.2 11.1 99 1016.6 6.9 E 15.2 0.0 0.0
05:08 11.2 11.1 99 1016.6 12.1 SE 15.2 0.0 0.0
05:09 11.2 11.1 99 1016.4 12.1 SE 15.2 0.0 0.0
05:10 11.2 11.1 99 1016.5 9.8 SE 15.2 0.0 0.0
05:11 11.2 11.1 99 1016.4 9.2 SE 15.2 0.0 0.0
05:12 11.2 11.1 99 1016.6 7.6 NE 15.2 0.0 0.0
05:13 11.2 11.1 99 1016.4 9.8 E 15.2 0.0 0.0
05:14 11.2 11.1 99 1016.6 9.8 SE 15.2 0.0 0.0
05:15 11.2 11.1 99 1016.5 11.4 SE 15.2 0.0 0.0
05:16 11.2 11.1 99 1016.5 8.3 SE 12.1 0.0 0.0
05:17 11.2 11.1 99 1016.6 7.6 SE 12.1 0.0 0.0
05:18 11.2 11.1 99 1016.4 17.4 SE 17.4 0.0 0.0
05:20 11.1 11.0 99 1016.6 9.2 SE 17.4 0.0 0.0
05:21 11.1 11.0 99 1016.6 14.5 SE 17.4 0.0 0.0
05:22 11.2 11.1 99 1016.7 15.2 E 17.4 0.0 0.0
05:23 11.2 11.1 99 1016.6 9.2 S 17.4 0.0 0.0
05:24 11.2 11.1 99 1016.5 10.7 SE 17.4 0.0 0.0
05:25 11.2 11.1 99 1016.5 10.7 SE 17.4 0.0 0.0
05:26 11.2 11.1 99 1016.5 11.4 S 17.4 0.0 0.0
05:27 11.1 11.0 99 1016.5 10.7 SE 17.4 0.0 0.0
05:28 11.1 11.0 99 1016.4 9.8 SE 17.4 0.0 0.0
05:29 11.1 11.0 99 1016.4 12.1 SE 15.2 0.0 0.0
05:30 11.1 11.0 99 1016.6 9.2 SE 15.2 0.0 0.0
05:31 11.1 11.0 99 1016.5 12.1 SE 15.2 0.0 0.0
05:32 11.1 11.0 99 1016.5 7.6 SE 15.2 0.0 0.0
05:33 11.1 11.0 99 1016.5 9.8 E 12.1 0.0 0.0
05:34 11.1 11.0 99 1016.3 6.9 E 12.1 0.0 0.0
05:35 11.1 11.0 99 1016.5 6.9 NW 12.1 0.0 0.0
05:36 11.1 11.0 99 1016.6 10.7 S 12.1 0.0 0.0
05:37 11.1 11.0 99 1016.5 9.2 E 12.1 0.0 0.0
05:39 11.1 11.0 99 1016.5 7.6 SE 12.1 0.0 0.0
05:40 11.1 11.0 99 1016.5 9.8 SE 12.1 0.0 0.0
05:41 11.1 11.0 99 1016.4 8.3 SE 10.7 0.0 0.0
05:42 11.1 11.0 99 1016.6 6.9 E 10.7 0.0 0.0
05:43 11.1 11.0 99 1016.5 7.6 SE 10.7 0.0 0.0
05:44 11.1 11.0 99 1016.5 7.6 SE 10.7 0.0 0.0
05:45 11.1 11.0 99 1016.6 8.3 SE 10.7 0.0 0.0
05:46 11.1 11.0 99 1016.4 6.9 NW 10.7 0.0 0.0
05:47 11.1 11.0 99 1016.4 6.0 S 10.7 0.0 0.0
05:48 11.1 11.0 99 1016.6 9.2 SE 10.7 0.0 0.0
05:49 11.1 11.0 99 1016.5 6.9 SE 9.8 0.0 0.0
05:50 11.1 11.0 99 1016.6 9.2 SE 9.8 0.0 0.0
05:51 11.1 11.0 99 1016.5 8.3 SE 9.2 0.0 0.0
05:52 11.1 11.0 99 1016.5 8.3 SE 9.2 0.0 0.0
05:53 11.1 11.0 99 1016.5 9.2 SE 9.2 0.0 0.0
05:54 11.1 11.0 99 1016.6 9.2 S 9.2 0.0 0.0
05:55 11.1 11.0 99 1016.6 7.6 SE 9.2 0.0 0.0
05:56 11.0 10.9 99 1016.5 6.0 NE 9.2 0.0 0.0
05:58 11.0 10.9 99 1016.6 7.6 S 9.2 0.0 0.0
05:59 11.0 10.9 99 1016.5 6.0 S 9.2 0.0 0.0
06:00 11.0 10.9 99 1016.4 6.0 S 9.2 0.0 0.0
06:01 11.0 10.9 99 1016.5 6.0 S 9.2 0.0 0.0
06:02 11.0 10.9 99 1016.7 6.0 S 9.2 0.0 0.0
06:03 11.0 10.9 99 1016.5 6.0 S 9.2 0.0 0.0
06:04 11.0 10.9 99 1016.4 6.0 S 9.2 0.0 0.0
06:05 11.0 10.9 99 1016.5 6.0 S 9.2 0.0 0.0
06:06 11.0 10.9 99 1016.4 4.5 SE 7.6 0.0 0.0
06:07 11.0 10.9 99 1016.5 5.4 SE 7.6 0.0 0.0
06:08 11.0 10.9 99 1016.4 6.9 W 7.6 0.0 0.0
06:09 11.0 10.9 99 1016.6 6.9 SSE 7.6 0.0 0.0
06:10 11.0 10.9 99 1016.7 8.3 SE 8.3 0.0 0.0
06:11 11.0 10.9 99 1016.6 5.4 SE 8.3 0.0 0.0
06:12 11.0 10.9 99 1016.6 6.0 SE 8.3 0.0 0.0
06:13 11.0 10.9 99 1016.6 8.3 ESE 8.3 0.0 0.0
06:14 11.0 10.9 99 1016.6 5.4 NE 8.3 0.0 0.0
06:15 11.0 10.9 99 1016.7 6.0 E 8.3 0.0 0.0
06:17 11.0 10.9 99 1016.6 6.9 SE 8.3 0.0 0.0
06:18 11.0 10.9 99 1016.5 7.6 ESE 8.3 0.0 0.0
06:19 11.0 10.9 99 1016.5 6.9 SE 8.3 0.0 0.0
06:20 11.0 10.9 99 1016.5 6.9 ENE 8.3 0.0 0.0
06:21 11.0 10.9 99 1016.6 7.6 E 8.3 0.0 0.0
06:22 11.0 10.9 99 1016.5 7.6 SE 8.3 0.0 0.0
06:23 11.0 10.9 99 1016.6 6.0 NW 8.3 0.0 0.0
06:24 11.0 10.9 99 1016.4 6.9 E 7.6 0.0 0.0
06:25 11.0 10.9 99 1016.7 6.9 SE 7.6 0.0 0.0
06:26 11.0 10.9 99 1016.6 5.4 SW 7.6 0.0 0.0
06:27 11.0 10.9 99 1016.5 6.0 SW 7.6 0.0 0.0
06:28 11.0 10.9 99 1016.6 9.2 NE 9.2 0.0 0.0
06:29 11.0 10.9 99 1016.6 6.9 SE 9.2 0.0 0.0
06:30 11.0 10.9 99 1016.6 9.2 SE 9.2 0.0 0.0
06:31 11.0 10.9 99 1016.7 9.2 SE 9.2 0.0 0.0
06:32 11.1 11.0 99 1016.6 4.5 SE 9.2 0.0 0.0
06:33 11.1 11.0 99 1016.6 6.0 NNW 9.2 0.0 0.0
06:34 11.1 11.0 99 1016.6 6.9 NNW 9.2 0.0 0.0
06:36 11.1 11.0 99 1016.7 6.9 E 9.2 0.0 0.0
06:37 11.1 11.0 99 1016.7 6.9 SE 9.2 0.0 0.0
06:38 11.1 11.0 99 1016.7 8.3 NW 9.2 0.0 0.0
06:39 11.1 11.0 99 1016.7 9.2 NE 9.2 0.0 0.0
06:40 11.1 11.0 99 1016.7 9.2 E 9.2 0.0 0.0
06:41 11.1 11.0 99 1016.7 6.0 S 9.2 0.0 0.0
06:42 11.1 11.0 99 1016.7 6.0 N 9.2 0.0 0.0
06:43 11.1 11.0 99 1016.7 5.4 N 9.2 0.0 0.0
06:44 11.1 11.0 99 1016.7 6.9 SE 9.2 0.0 0.0
06:45 11.1 11.0 99 1016.6 6.9 SE 9.2 0.0 0.0
06:46 11.1 11.0 99 1016.7 9.2 S 9.8 0.0 0.0
06:47 11.1 11.0 99 1016.7 6.0 NW 9.8 0.0 0.0
06:48 11.1 11.0 99 1016.6 8.3 SE 9.8 0.0 0.0
06:49 11.1 11.0 99 1016.7 7.6 SE 9.8 0.0 0.0
06:50 11.1 11.0 99 1016.7 6.9 SW 9.8 0.0 0.0
06:51 11.1 11.0 99 1016.7 8.3 E 9.8 0.0 0.0
06:52 11.1 11.0 99 1016.8 9.8 SE 9.8 0.0 0.0
06:54 11.1 11.0 99 1016.8 9.2 SE 9.8 0.0 0.0
06:55 11.1 11.0 99 1016.8 8.3 E 9.8 0.0 0.0
06:56 11.1 11.0 99 1016.8 9.2 SE 9.8 0.0 0.0
06:57 11.1 11.0 99 1016.8 9.8 N 9.8 0.0 0.0
06:58 11.1 11.0 99 1016.8 9.2 E 9.8 0.0 0.0
06:59 11.1 11.0 99 1016.8 6.0 E 9.8 0.0 0.0
07:00 11.1 11.0 99 1016.8 12.1 SE 12.1 0.0 0.0
07:01 11.1 11.0 99 1016.9 7.6 SE 12.1 0.0 0.0
07:02 11.2 11.1 99 1017.0 6.0 SE 12.1 0.0 0.0
07:03 11.2 11.1 99 1016.9 6.9 SE 12.1 0.0 0.0
07:04 11.2 11.1 99 1016.8 6.0 SE 12.1 0.0 0.0
07:05 11.2 11.1 99 1016.9 7.6 S 12.1 0.0 0.0
07:06 11.2 11.1 99 1016.8 8.3 S 12.1 0.0 0.0
07:07 11.2 11.1 99 1016.9 7.6 SE 12.1 0.0 0.0
07:08 11.2 11.1 99 1017.0 8.3 SE 12.1 0.0 0.0
07:09 11.2 11.1 99 1016.8 9.2 SE 12.1 0.0 0.0
07:10 11.2 11.1 99 1016.8 9.2 SE 12.1 0.0 0.0
07:12 11.2 11.1 99 1016.8 6.9 E 10.7 0.0 0.0
07:13 11.2 11.1 99 1016.9 9.2 SE 10.7 0.0 0.0
07:14 11.2 11.1 99 1016.9 6.0 N 10.7 0.0 0.0
07:15 11.2 11.1 99 1016.8 9.8 SE 10.7 0.0 0.0
07:16 11.2 11.1 99 1016.8 9.8 SE 10.7 0.0 0.0
07:17 11.2 11.1 99 1016.8 9.2 SE 10.7 0.0 0.0
07:18 11.2 11.1 99 1016.8 10.7 S 10.7 0.0 0.0
07:19 11.3 11.2 99 1016.8 6.9 SE 10.7 0.0 0.0
07:20 11.3 11.2 99 1016.9 9.2 SE 10.7 0.0 0.0
07:21 11.2 11.1 99 1016.8 9.8 SE 10.7 0.0 0.0
07:22 11.2 11.1 99 1017.0 7.6 SE 10.7 0.0 0.0
07:23 11.3 11.2 99 1016.9 7.6 SE 10.7 0.0 0.0
07:24 11.2 11.1 99 1016.9 6.9 N 10.7 0.0 0.0
07:25 11.3 11.2 99 1017.0 7.6 SSE 10.7 0.0 0.0
07:27 11.3 11.2 99 1016.9 9.2 SE 10.7 0.0 0.0
07:28 11.3 11.2 99 1017.0 9.8 S 9.8 0.0 0.0
07:29 11.3 11.2 99 1017.1 6.9 S 9.8 0.0 0.0
07:30 11.3 11.2 99 1017.1 6.9 S 9.8 0.0 0.0
07:31 11.3 11.2 99 1017.1 8.3 SE 9.8 0.0 0.0
07:32 11.3 11.2 99 1017.0 9.2 S 9.8 0.0 0.0
07:33 11.3 11.2 99 1017.2 6.9 SE 10.7 0.0 0.0
07:34 11.3 11.2 99 1017.0 8.3 S 10.7 0.0 0.0
07:35 11.3 11.2 99 1016.9 6.0 SE 10.7 0.0 0.0
07:36 11.3 11.2 99 1017.1 7.6 NE 10.7 0.0 0.0
07:37 11.3 11.2 99 1017.1 8.3 SE 10.7 0.0 0.0
07:38 11.3 11.2 99 1017.0 10.7 E 10.7 0.0 0.0
07:39 11.3 11.2 99 1017.2 9.2 SE 10.7 0.0 0.0
07:40 11.3 11.2 99 1017.1 12.1 SE 12.1 0.0 0.0
07:41 11.3 11.2 99 1017.1 6.0 E 12.1 0.0 0.0
07:42 11.3 11.2 99 1017.2 9.2 S 12.1 0.0 0.0
07:44 11.3 11.2 99 1017.2 8.3 SE 12.1 0.0 0.0
07:45 11.3 11.2 99 1017.1 9.2 S 12.1 0.0 0.0
07:46 11.3 11.2 99 1017.2 7.6 ENE 12.1 0.0 0.0
07:47 11.3 11.2 99 1017.0 9.8 SE 12.1 0.0 0.0
07:48 11.3 11.2 99 1017.0 9.8 SE 12.1 0.0 0.0
07:49 11.3 11.2 99 1017.1 9.2 SE 12.1 0.0 0.0
07:50 11.3 11.2 99 1017.1 9.2 SE 12.1 0.0 0.0
07:51 11.3 11.2 99 1017.1 9.8 SE 9.8 0.0 0.0
07:52 11.3 11.2 99 1017.2 7.6 S 9.8 0.0 0.0
07:53 11.3 11.2 99 1017.1 12.1 SE 12.1 0.0 0.0
07:54 11.3 11.2 99 1017.1 9.2 SE 12.1 0.0 0.0
07:55 11.3 11.2 99 1017.2 13.6 SE 13.6 0.0 0.0
07:56 11.3 11.2 99 1017.3 10.7 SE 13.6 0.0 0.0
07:57 11.3 11.2 99 1017.1 6.9 SE 13.6 0.0 0.0
07:59 11.3 11.2 99 1017.2 11.4 SE 13.6 0.0 0.0
08:00 11.3 11.2 99 1017.1 11.4 SE 13.6 0.0 0.0
08:01 11.3 11.2 99 1017.2 11.4 SE 13.6 0.0 0.0
08:02 11.3 11.2 99 1017.1 11.4 SE 13.6 0.0 0.0
08:03 11.3 11.2 99 1017.3 11.4 SE 13.6 0.0 0.0
08:04 11.3 11.2 99 1017.2 11.4 SE 13.6 0.0 0.0
08:05 11.3 11.2 99 1017.1 11.4 SE 13.6 0.0 0.0
08:06 11.4 11.3 99 1017.2 3.8 SE 11.4 0.0 0.0
08:07 11.4 11.3 99 1017.1 8.3 S 11.4 0.0 0.0
08:08 11.4 11.3 99 1017.2 5.4 SE 11.4 0.0 0.0
08:09 11.4 11.3 99 1017.1 5.4 S 11.4 0.0 0.0
08:10 11.4 11.3 99 1017.2 5.4 SE 11.4 0.0 0.0
08:11 11.4 11.3 99 1017.2 6.0 E 11.4 0.0 0.0
08:12 11.4 11.3 99 1017.2 7.6 E 11.4 0.0 0.0
08:14 11.4 11.3 99 1017.1 7.6 SE 11.4 0.0 0.0
08:15 11.4 11.3 99 1017.1 4.5 SW 8.3 0.0 0.0
08:16 11.4 11.3 99 1017.3 6.0 E 8.3 0.0 0.0
08:17 11.4 11.3 99 1017.1 7.6 E 8.3 0.0 0.0
08:18 11.5 11.4 99 1017.1 6.0 E 7.6 0.0 0.0
08:19 11.4 11.3 99 1017.2 3.8 NW 7.6 0.0 0.0
08:20 11.5 11.4 99 1017.2 4.5 E 7.6 0.0 0.0
08:21 11.5 11.4 99 1017.2 6.0 SE 7.6 0.0 0.0
08:22 11.5 11.4 99 1017.1 5.4 N 7.6 0.0 0.0
08:23 11.5 11.4 99 1017.3 5.4 NW 7.6 0.0 0.0
08:24 11.5 11.4 99 1017.3 6.9 NW 7.6 0.0 0.0
08:25 11.5 11.4 99 1017.1 4.5 E 7.6 0.0 0.0
08:26 11.5 11.4 99 1017.1 8.3 SE 8.3 0.0 0.0
08:27 11.5 11.4 99 1017.2 6.9 SE 8.3 0.0 0.0
08:29 11.5 11.4 99 1017.2 9.2 SE 9.2 0.0 0.0
08:30 11.5 11.4 99 1017.2 8.3 SE 10.7 0.0 0.0
08:31 11.5 11.4 99 1017.1 6.9 E 10.7 0.0 0.0
08:32 11.5 11.4 99 1017.1 6.9 E 10.7 0.0 0.0
08:33 11.5 11.4 99 1017.1 6.0 SE 10.7 0.0 0.0
08:34 11.5 11.4 99 1017.1 6.0 NW 10.7 0.0 0.0
08:35 11.5 11.4 99 1017.2 3.8 SE 10.7 0.0 0.0
08:36 11.5 11.4 99 1017.1 5.4 SW 10.7 0.0 0.0
08:37 11.5 11.4 99 1017.1 5.4 NE 10.7 0.0 0.0
08:38 11.5 11.4 99 1017.2 8.3 SE 10.7 0.0 0.0
08:39 11.5 11.4 99 1017.2 6.9 SE 10.7 0.0 0.0
08:40 11.5 11.4 99 1017.3 6.9 W 8.3 0.0 0.0
08:41 11.5 11.4 99 1017.2 7.6 NW 8.3 0.0 0.0
08:42 11.5 11.4 99 1017.2 5.4 E 8.3 0.0 0.0
08:44 11.5 11.4 99 1017.1 5.4 E 8.3 0.0 0.0
08:45 11.5 11.4 99 1017.2 6.0 SE 8.3 0.0 0.0
08:46 11.5 11.4 99 1017.1 6.0 SW 8.3 0.0 0.0
08:47 11.5 11.4 99 1017.2 6.0 SE 8.3 0.0 0.0
08:48 11.5 11.4 99 1017.2 5.4 SE 8.3 0.0 0.0
08:49 11.5 11.4 99 1017.2 2.2 N 7.6 0.0 0.0
08:50 11.5 11.4 99 1017.2 4.5 E 7.6 0.0 0.0
08:51 11.5 11.4 99 1017.2 6.0 S 7.6 0.0 0.0
08:52 11.5 11.4 99 1017.1 11.4 E 11.4 0.0 0.0
08:53 11.5 11.4 99 1017.1 6.0 ENE 11.4 0.0 0.0
08:54 11.5 11.4 99 1017.1 6.0 SE 11.4 0.0 0.0
08:55 11.5 11.4 99 1017.1 7.6 E 11.4 0.0 0.0
08:56 11.5 11.4 99 1017.2 6.0 SE 11.4 0.0 0.0
08:58 11.5 11.4 99 1017.1 7.6 S 11.4 0.0 0.0
08:59 11.5 11.4 99 1017.3 6.9 S 11.4 0.0 0.0
09:00 11.5 11.4 99 1017.3 6.9 S 11.4 0.0 0.0
09:01 11.5 11.4 99 1017.2 4.5 S 11.4 0.0 0.0
09:02 11.5 11.4 99 1017.2 3.8 NE 11.4 0.0 0.0
09:03 11.5 11.4 99 1017.3 6.0 E 7.6 0.0 0.0
09:04 11.5 11.4 99 1017.2 6.9 SSE 7.6 0.0 0.0
09:05 11.5 11.4 99 1017.2 3.8 S 7.6 0.0 0.0
09:06 11.5 11.4 99 1017.1 6.0 WNW 7.6 0.0 0.0
09:07 11.5 11.4 99 1017.3 5.4 S 7.6 0.0 0.0
09:08 11.5 11.4 99 1017.2 4.5 E 7.6 0.0 0.0
09:09 11.6 11.5 99 1017.2 6.9 SE 6.9 0.0 0.0
09:10 11.6 11.5 99 1017.2 3.8 NE 6.9 0.0 0.0
09:11 11.6 11.5 99 1017.2 6.9 S 6.9 0.0 0.0
09:12 11.6 11.5 99 1017.2 4.5 SE 6.9 0.0 0.0
09:13 11.6 11.5 99 1017.3 6.0 E 7.6 0.0 0.0
09:14 11.5 11.4 99 1017.2 4.5 E 7.6 0.0 0.0
09:15 11.6 11.5 99 1017.4 3.8 S 7.6 0.0 0.0
09:17 11.6 11.5 99 1017.2 3.8 N 7.6 0.0 0.0
09:18 11.6 11.5 99 1017.1 6.0 SW 7.6 0.0 0.0
09:19 11.6 11.5 99 1017.1 5.4 WNW 7.6 0.0 0.0
09:20 11.6 11.5 99 1017.1 5.4 WNW 7.6 0.0 0.0
09:21 11.6 11.5 99 1017.1 9.2 SE 9.2 0.0 0.0
09:22 11.6 11.5 99 1017.1 5.4 NE 9.2 0.0 0.0
09:23 11.6 11.5 99 1017.3 7.6 SE 9.2 0.0 0.0
09:24 11.6 11.5 99 1017.0 5.4 E 9.2 0.0 0.0
09:25 11.6 11.5 99 1017.1 5.4 N 9.2 0.0 0.0
09:26 11.6 11.5 99 1017.2 6.0 N 9.2 0.0 0.0
09:27 11.6 11.5 99 1017.2 7.6 N 9.2 0.0 0.0
09:28 11.6 11.5 99 1017.1 9.2 NW 9.2 0.0 0.0
09:29 11.6 11.5 99 1017.0 9.8 SE 9.8 0.0 0.0
09:30 11.6 11.5 99 1017.3 6.0 SE 9.8 0.0 0.0
09:32 11.7 11.6 99 1017.3 7.6 SE 9.8 0.0 0.0
09:33 11.7 11.6 99 1017.3 8.3 SW 9.8 0.0 0.0
09:34 11.7 11.6 99 1017.2 4.5 SE 9.8 0.0 0.0
09:35 11.7 11.6 99 1017.2 4.5 SE 9.8 0.0 0.0
09:36 11.7 11.6 99 1017.3 6.9 SE 9.8 0.0 0.0
09:37 11.7 11.6 99 1017.4 6.0 ENE 9.8 0.0 0.0
09:38 11.7 11.6 99 1017.4 4.5 SE 9.8 0.0 0.0
09:39 11.7 11.6 99 1017.3 5.4 SE 9.8 0.0 0.0
09:40 11.7 11.6 99 1017.4 9.8 S 9.8 0.0 0.0
09:41 11.7 11.6 99 1017.2 9.2 SE 9.8 0.0 0.0
09:42 11.7 11.6 99 1017.5 6.9 NE 9.8 0.0 0.0
09:43 11.7 11.6 99 1017.3 9.2 E 9.8 0.0 0.0
09:44 11.7 11.6 99 1017.4 6.0 SW 9.8 0.0 0.0
09:46 11.7 11.6 99 1017.3 7.6 NW 9.8 0.0 0.0
09:47 11.8 11.7 99 1017.3 4.5 E 9.8 0.0 0.0
09:48 11.8 11.7 99 1017.3 6.9 N 9.8 0.0 0.0
09:49 11.8 11.7 99 1017.3 6.0 S 9.8 0.0 0.0
09:50 11.8 11.7 99 1017.3 9.2 SE 9.8 0.0 0.0
09:51 11.8 11.7 99 1017.2 6.9 S 9.8 0.0 0.0
09:52 11.8 11.7 99 1017.2 6.9 SE 9.8 0.0 0.0
09:53 11.8 11.7 99 1017.2 9.2 S 9.2 0.0 0.0
09:54 11.8 11.7 99 1017.3 5.4 SW 9.2 0.0 0.0
09:55 11.8 11.7 99 1017.3 5.4 SE 9.2 0.0 0.0
09:56 11.8 11.7 99 1017.4 5.4 S 9.2 0.0 0.0
09:57 11.8 11.7 99 1017.3 6.0 NE 9.2 0.0 0.0
09:58 11.8 11.7 99 1017.5 9.2 SE 9.2 0.0 0.0
09:59 11.8 11.7 99 1017.3 7.6 E 9.2 0.0 0.0
10:01 11.8 11.7 99 1017.4 7.6 E 9.2 0.0 0.0
10:02 11.8 11.7 99 1017.5 7.6 E 9.2 0.0 0.0
10:03 11.8 11.7 99 1017.5 7.6 E 9.2 0.0 0.0
10:04 11.8 11.7 99 1017.5 7.6 E 9.2 0.0 0.0
10:05 11.9 11.8 99 1017.5 4.5 E 9.2 0.0 0.0
10:06 11.9 11.8 99 1017.4 5.4 SE 9.2 0.0 0.0
10:07 11.9 11.8 99 1017.4 6.0 SE 9.2 0.0 0.0
10:08 11.9 11.8 99 1017.5 9.8 SE 9.8 0.0 0.0
10:09 12.0 11.9 99 1017.3 5.4 E 9.8 0.0 0.0
10:10 12.0 11.9 99 1017.4 5.4 S 9.8 0.0 0.0
10:11 12.0 11.9 99 1017.3 5.4 N 9.8 0.0 0.0
10:12 12.0 11.9 99 1017.5 7.6 N 9.8 0.0 0.0
10:13 12.0 11.9 99 1017.4 5.4 SE 9.8 0.0 0.0
10:14 12.0 11.9 99 1017.4 6.0 S 9.8 0.0 0.0
10:16 12.0 11.9 99 1017.4 5.4 S 9.8 0.0 0.0
10:17 12.0 11.9 99 1017.4 3.1 SE 9.8 0.0 0.0
10:18 12.0 11.9 99 1017.4 8.3 SE 9.8 0.0 0.0
10:19 12.0 11.9 99 1017.5 9.2 NE 9.2 0.0 0.0
10:20 12.1 12.0 99 1017.4 6.0 S 9.2 0.0 0.0
10:21 12.0 11.9 99 1017.5 6.9 S 9.2 0.0 0.0
10:22 12.0 11.9 99 1017.4 6.0 S 9.2 0.0 0.0
10:23 12.0 11.9 99 1017.3 3.1 SE 9.2 0.0 0.0
10:24 12.0 11.9 99 1017.5 4.5 E 9.2 0.0 0.0
10:25 12.0 11.9 99 1017.4 3.8 SE 9.2 0.0 0.0
10:26 12.0 11.9 99 1017.3 7.6 NE 9.2 0.0 0.0
10:27 12.0 11.9 99 1017.3 7.6 NE 9.2 0.0 0.0
10:28 12.1 12.0 99 1017.3 6.0 SE 9.2 0.0 0.0
10:30 12.1 12.0 99 1017.3 5.4 SE 7.6 0.0 0.0
10:31 12.1 12.0 99 1017.3 5.4 E 7.6 0.0 0.0
10:32 12.2 12.1 99 1017.2 10.7 SE 10.7 0.0 0.0
10:33 12.2 12.1 99 1017.1 6.9 ENE 10.7 0.0 0.0
10:34 12.3 12.2 99 1017.2 6.0 S 10.7 0.0 0.0
10:35 12.3 12.2 99 1017.3 6.0 NE 10.7 0.0 0.0
10:36 12.3 12.2 99 1017.2 3.8 N 10.7 0.0 0.0
10:37 12.4 12.3 99 1017.2 2.2 SW 10.7 0.0 0.0
10:38 12.4 12.3 99 1017.3 5.4 S 10.7 0.0 0.0
10:39 12.4 12.3 99 1017.2 3.8 NE 10.7 0.0 0.0
10:40 12.4 12.3 99 1017.1 3.1 NE 10.7 0.0 0.0
10:41 12.5 12.4 99 1017.2 3.1 SW 10.7 0.0 0.0
10:42 12.5 12.4 99 1017.2 0.7 SW 10.7 0.0 0.0
10:43 12.5 12.4 99 1017.2 4.5 S 6.9 0.0 0.0
10:45 12.4 12.3 99 1017.3 0.0 SE 6.9 0.0 0.0
10:46 12.4 12.3 99 1017.2 3.1 SE 6.9 0.0 0.0
10:47 12.4 12.3 99 1017.2 3.8 N 5.4 0.0 0.0
10:48 12.4 12.3 99 1017.2 3.1 NE 5.4 0.0 0.0
10:49 12.4 12.3 99 1017.2 5.4 SE 5.4 0.0 0.0
10:50 12.4 12.3 99 1017.2 6.9 SE 6.9 0.0 0.0
10:51 12.4 12.3 99 1017.3 8.3 SE 8.3 0.0 0.0
10:52 12.4 12.3 99 1017.1 4.5 N 8.3 0.0 0.0
10:53 12.4 12.3 99 1017.2 5.4 SE 8.3 0.0 0.0
10:54 12.4 12.3 99 1017.2 5.4 SE 8.3 0.0 0.0
10:55 12.4 12.3 99 1017.2 4.5 SE 8.3 0.0 0.0
10:56 12.4 12.3 99 1017.3 4.5 E 8.3 0.0 0.0
10:57 12.4 12.3 99 1017.3 3.8 NE 8.3 0.0 0.0
10:58 12.4 12.3 99 1017.4 5.4 SE 8.3 0.0 0.0
10:59 12.4 12.3 99 1017.3 6.0 E 8.3 0.0 0.0
11:00 12.4 12.3 99 1017.3 4.5 NE 8.3 0.0 0.0
11:02 12.4 12.3 99 1017.3 6.9 SE 6.9 0.0 0.0
11:03 12.4 12.3 99 1017.3 6.9 SE 9.8 0.0 0.0
11:04 12.4 12.3 99 1017.3 6.9 NE 9.8 0.0 0.0
11:05 12.4 12.3 99 1017.3 6.9 SE 9.8 0.0 0.0
11:06 12.4 12.3 99 1017.3 7.6 S 9.8 0.0 0.0
11:07 12.4 12.3 99 1017.3 5.4 NE 9.8 0.0 0.0
11:09 12.4 12.3 99 1017.3 6.0 SE 9.8 0.0 0.0
11:10 12.3 12.2 99 1017.4 8.3 S 9.8 0.0 0.0
11:11 12.4 12.3 99 1017.2 5.4 E 9.8 0.0 0.0
11:12 12.3 12.2 99 1017.3 5.4 NNW 9.8 0.0 0.0
11:13 12.3 12.2 99 1017.2 6.0 ENE 8.3 0.0 0.0
11:14 12.3 12.2 99 1017.2 6.9 E 8.3 0.0 0.0
11:15 12.3 12.2 99 1017.1 4.5 SE 8.3 0.0 0.0
11:16 12.3 12.2 99 1017.1 5.4 SE 8.3 0.0 0.0
11:17 12.3 12.2 99 1017.1 5.4 SE 8.3 0.0 0.0
11:18 12.3 12.2 99 1017.2 4.5 N 8.3 0.0 0.0
11:19 12.3 12.2 99 1017.2 4.5 SE 8.3 0.0 0.0
11:20 12.3 12.2 99 1017.2 5.4 S 8.3 0.0 0.0
11:21 12.3 12.2 99 1017.2 3.1 SW 6.9 0.0 0.0
11:22 12.3 12.2 99 1017.1 0.7 WNW 6.9 0.0 0.0
11:24 12.3 12.2 99 1017.1 5.4 S 6.9 0.0 0.0
11:25 12.3 12.2 99 1017.1 4.5 N 5.4 0.0 0.0
11:26 12.3 12.2 99 1017.2 4.5 N 5.4 0.0 0.0
11:27 12.3 12.2 99 1017.2 5.4 NE 5.4 0.0 0.0
11:28 12.3 12.2 99 1017.2 4.5 ENE 5.4 0.0 0.0
11:29 12.3 12.2 99 1017.1 6.0 WNW 6.0 0.0 0.0
11:30 12.3 12.2 99 1017.0 5.4 S 6.0 0.0 0.0
11:31 12.3 12.2 99 1017.1 8.3 SE 8.3 0.0 0.0
11:32 12.3 12.2 99 1017.0 3.8 E 8.3 0.0 0.0
11:33 12.3 12.2 99 1017.1 3.8 S 8.3 0.0 0.0
11:34 12.3 12.2 99 1017.1 7.6 E 9.2 0.0 0.0
11:35 12.3 12.2 99 1017.1 6.9 S 9.2 0.0 0.0
11:36 12.3 12.2 99 1016.9 7.6 SE 9.2 0.0 0.0
11:37 12.3 12.2 99 1017.1 5.4 SE 9.2 0.0 0.0
11:39 12.3 12.2 99 1017.0 3.8 N 9.2 0.0 0.0
11:40 12.3 12.2 99 1017.0 4.5 NW 9.2 0.0 0.0
11:41 12.3 12.2 99 1017.0 4.5 E 9.2 0.0 0.0
11:42 12.3 12.2 99 1016.9 4.5 ENE 9.2 0.0 0.0
11:43 12.3 12.2 99 1016.9 4.5 N 9.2 0.0 0.0
11:44 12.3 12.2 99 1017.0 6.9 E 7.6 0.0 0.0
11:45 12.3 12.2 99 1017.0 8.3 SE 8.3 0.0 0.0
11:46 12.3 12.2 99 1017.0 6.0 SE 8.3 0.0 0.0
11:47 12.3 12.2 99 1017.1 8.3 E 8.3 0.0 0.0
11:48 12.3 12.2 99 1017.1 6.0 SE 8.3 0.0 0.0
11:49 12.3 12.2 99 1016.9 10.7 S 10.7 0.0 0.0
11:50 12.3 12.2 99 1017.0 9.2 SE 10.7 0.0 0.0
11:51 12.3 12.2 99 1017.0 6.9 SE 10.7 0.0 0.0
11:52 12.2 12.1 99 1017.0 7.6 E 10.7 0.0 0.0
11:54 12.2 12.1 99 1017.2 9.2 SE 10.7 0.0 0.0
11:55 12.2 12.1 99 1017.2 9.2 SE 10.7 0.0 0.0
11:56 12.2 12.1 99 1017.1 7.6 E 10.7 0.0 0.0
11:57 12.1 12.0 99 1017.1 6.0 S 10.7 0.0 0.0
11:58 12.1 12.0 99 1017.2 9.2 SE 10.7 0.0 0.0
11:59 12.1 12.0 99 1017.1 9.2 NE 9.2 0.0 0.0
12:00 12.1 12.0 99 1017.1 6.9 E 9.2 0.0 0.0
12:01 12.1 12.0 99 1017.0 9.2 SE 9.2 0.0 0.0
12:02 12.1 12.0 99 1017.1 6.0 S 9.2 0.0 0.0
12:03 12.0 11.9 99 1017.0 6.0 S 9.2 0.0 0.0
12:04 12.0 11.9 99 1016.9 7.6 SE 9.2 0.0 0.0
12:05 12.0 11.9 99 1017.1 7.6 SE 9.2 0.0 0.0
12:06 12.0 11.9 99 1016.9 6.9 SSE 9.2 0.0 0.0
12:07 12.0 11.9 99 1017.2 8.3 ESE 9.2 0.0 0.0
12:09 12.0 11.9 99 1017.0 8.3 SE 9.2 0.0 0.0
12:10 11.9 11.8 99 1017.0 7.6 S 9.2 0.0 0.0
12:11 11.9 11.8 99 1017.1 8.3 SE 9.2 0.0 0.0
12:12 11.9 11.8 99 1017.2 9.8 SE 9.8 0.0 0.0
12:13 11.9 11.8 99 1017.1 8.3 S 9.8 0.0 0.0
12:14 11.9 11.8 99 1017.1 8.3 SE 9.8 0.0 0.0
12:15 11.8 11.7 99 1017.1 7.6 NE 9.8 0.0 0.0
12:16 11.8 11.7 99 1017.1 9.8 E 9.8 0.0 0.0
12:17 11.8 11.7 99 1017.1 9.8 E 9.8 0.0 0.0
12:18 11.8 11.7 99 1017.1 4.5 S 9.8 0.0 0.0
12:19 11.8 11.7 99 1017.0 6.0 SE 9.8 0.0 0.0
12:20 11.8 11.7 99 1017.1 6.0 S 9.8 0.0 0.0
12:21 11.8 11.7 99 1017.2 8.3 S 9.8 0.0 0.0
12:22 11.8 11.7 99 1017.0 6.9 SE 9.8 0.0 0.0
12:24 11.8 11.7 99 1017.0 9.8 SE 9.8 0.0 0.0
12:25 11.8 11.7 99 1016.9 8.3 E 9.8 0.0 0.0
12:26 11.8 11.7 99 1017.0 4.5 E 9.8 0.0 0.0
12:27 11.8 11.7 99 1017.0 7.6 SE 9.8 0.0 0.0
12:28 11.8 11.7 99 1017.0 9.2 E 9.8 0.0 0.0
12:29 11.8 11.7 99 1016.8 7.6 SE 9.8 0.0 0.0
12:30 11.7 11.6 99 1016.9 6.0 E 9.8 0.0 0.0
12:31 11.7 11.6 99 1017.0 4.5 N 9.8 0.0 0.0
12:32 11.7 11.6 99 1017.0 7.6 E 9.8 0.0 0.0
12:33 11.7 11.6 99 1017.0 7.6 SE 9.8 0.0 0.0
12:34 11.7 11.6 99 1016.9 7.6 SE 9.8 0.0 0.0
12:35 11.7 11.6 99 1017.0 6.0 NE 9.2 0.0 0.0
12:36 11.7 11.6 99 1016.9 8.3 SE 9.2 0.0 0.0
12:37 11.7 11.6 99 1016.9 8.3 SE 9.2 0.0 0.0
12:39 11.7 11.6 99 1016.8 7.6 SE 11.4 0.0 0.0
12:40 11.7 11.6 99 1017.1 6.0 S 11.4 0.0 0.0
12:41 11.7 11.6 99 1017.2 7.6 SE 11.4 0.0 0.0
12:42 11.7 11.6 99 1017.2 11.4 SE 11.4 0.0 0.0
12:43 11.7 11.6 99 1017.0 8.3 SE 11.4 0.0 0.0
12:44 11.7 11.6 99 1017.1 6.0 SE 11.4 0.0 0.0
12:45 11.6 11.5 99 1017.2 8.3 SE 11.4 0.0 0.0
12:46 11.7 11.6 99 1017.0 8.3 S 11.4 0.0 0.0
12:47 11.6 11.5 99 1017.1 6.9 S 11.4 0.0 0.0
12:48 11.6 11.5 99 1017.1 6.9 SE 11.4 0.0 0.0
12:49 11.6 11.5 99 1017.0 6.0 S 11.4 0.0 0.0
12:50 11.6 11.5 99 1017.1 4.5 S 11.4 0.0 0.0
12:51 11.6 11.5 99 1017.1 10.7 SE 11.4 0.0 0.0
12:52 11.6 11.5 99 1016.9 6.9 SE 11.4 0.0 0.0
12:54 11.6 11.5 99 1017.1 8.3 E 10.7 0.0 0.0
12:55 11.6 11.5 99 1017.2 8.3 NE 10.7 0.0 0.0
12:56 11.6 11.5 99 1017.1 7.6 SE 10.7 0.0 0.0
12:57 11.6 11.5 99 1017.0 11.4 SE 11.4 0.0 0.0
12:58 11.6 11.5 99 1017.0 6.9 SE 11.4 0.0 0.0
12:59 11.6 11.5 99 1017.2 13.0 SE 13.0 0.0 0.0
13:00 11.6 11.5 99 1017.0 9.8 S 13.0 0.0 0.0
13:01 11.6 11.5 99 1017.1 10.7 SE 13.0 0.0 0.0
13:02 11.5 11.4 99 1017.0 9.8 S 13.0 0.0 0.0
13:03 11.6 11.5 99 1017.1 11.4 SE 13.0 0.0 0.0
13:04 11.5 11.4 99 1017.1 10.7 WSW 13.0 0.0 0.0
13:05 11.5 11.4 99 1017.0 12.1 SSE 13.0 0.0 0.0
13:06 11.5 11.4 99 1017.2 13.0 S 13.0 0.0 0.0
13:07 11.5 11.4 99 1017.1 10.7 E 13.0 0.0 0.0
13:08 11.5 11.4 99 1017.2 12.1 S 13.0 0.0 0.0
13:09 11.5 11.4 99 1017.1 10.7 S 13.0 0.0 0.0
13:10 11.5 11.4 99 1017.1 9.2 S 13.0 0.0 0.0
13:11 11.4 11.3 99 1017.1 11.4 SSE 13.0 0.0 0.0
13:12 11.4 11.3 99 1017.2 8.3 SE 13.0 0.0 0.0
13:13 11.4 11.3 99 1017.3 9.2 SE 13.0 0.0 0.0
13:15 11.4 11.3 99 1017.1 10.7 SE 13.0 0.0 0.0
13:16 11.4 11.3 99 1017.2 9.2 SE 13.0 0.0 0.0
13:17 11.3 11.2 99 1017.3 10.7 S 12.1 0.0 0.0
13:18 11.3 11.2 99 1017.2 11.4 SE 11.4 0.0 0.0
13:19 11.5 11.4 99 1017.3 8.3 SE 11.4 0.0 0.0
13:20 11.3 11.2 99 1017.4 9.2 SE 11.4 0.0 0.0
13:21 11.3 11.2 99 1017.3 6.9 SE 11.4 0.0 0.0
13:22 11.3 11.2 99 1017.3 7.6 SE 11.4 0.0 0.0
13:23 11.4 11.3 99 1017.4 7.6 S 11.4 0.0 0.0
13:24 11.3 11.2 99 1017.2 11.4 SE 11.4 0.0 0.0
13:25 11.3 11.2 99 1017.3 9.2 SE 11.4 0.0 0.0
13:26 11.3 11.2 99 1017.2 10.7 S 11.4 0.0 0.0
13:27 11.3 11.2 99 1017.4 10.7 S 11.4 0.0 0.0
13:28 11.3 11.2 99 1017.5 11.4 S 11.4 0.0 0.0
13:29 11.3 11.2 99 1017.3 10.7 SE 11.4 0.0 0.0
13:30 11.3 11.2 99 1017.3 9.8 SE 11.4 0.0 0.0
13:31 11.3 11.2 99 1017.4 10.7 SE 11.4 0.0 0.0
13:32 11.3 11.2 99 1017.3 9.2 SE 11.4 0.0 0.0
13:33 11.3 11.2 99 1017.4 9.8 SE 11.4 0.0 0.0
13:34 11.3 11.2 99 1017.4 12.1 SE 12.1 0.0 0.0
13:35 11.3 11.2 99 1017.4 9.8 SE 12.1 0.0 0.0
13:36 11.3 11.2 99 1017.3 12.1 SE 12.1 0.0 0.0
13:37 11.3 11.2 99 1017.4 10.7 SE 12.1 0.0 0.0
13:38 11.3 11.2 99 1017.4 10.7 SE 12.1 0.0 0.0
13:39 11.3 11.2 99 1017.3 11.4 SE 12.1 0.0 0.0
13:40 11.3 11.2 99 1017.4 13.0 SE 13.0 0.0 0.0
13:41 11.3 11.2 99 1017.3 9.2 SE 13.0 0.0 0.0
13:42 11.2 11.1 99 1017.3 7.6 S 13.0 0.0 0.0
13:43 11.3 11.2 99 1017.4 10.7 SE 13.0 0.0 0.0
13:45 11.2 11.1 99 1017.4 9.2 S 13.0 0.0 0.0
13:46 11.2 11.1 99 1017.4 10.7 S 13.0 0.0 0.0
13:47 11.2 11.1 99 1017.4 9.8 S 13.0 0.0 0.0
13:48 11.2 11.1 99 1017.4 10.7 SE 13.0 0.0 0.0
13:49 11.2 11.1 99 1017.4 9.2 S 13.0 0.0 0.0
13:50 11.2 11.1 99 1017.4 6.9 SE 11.4 0.0 0.0
13:51 11.2 11.1 99 1017.3 9.2 S 11.4 0.0 0.0
13:52 11.2 11.1 99 1017.3 10.7 SE 11.4 0.0 0.0
13:53 11.2 11.1 99 1017.3 10.7 SE 11.4 0.0 0.0
13:54 11.2 11.1 99 1017.3 7.6 S 11.4 0.0 0.0
13:55 11.2 11.1 99 1017.3 9.2 S 11.4 0.0 0.0
13:56 11.2 11.1 99 1017.3 6.9 SW 11.4 0.0 0.0
13:57 11.2 11.1 99 1017.2 7.6 SE 11.4 0.0 0.0
13:58 11.2 11.1 99 1017.3 9.8 SE 11.4 0.0 0.0
13:59 11.2 11.1 99 1017.2 9.2 SE 11.4 0.0 0.0
14:00 11.2 11.1 99 1017.2 8.3 S 11.4 0.0 0.0
14:01 11.2 11.1 99 1017.2 9.2 S 11.4 0.0 0.0
14:02 11.2 11.1 99 1017.2 8.3 S 10.7 0.0 0.0
14:03 11.2 11.1 99 1017.1 8.3 SE 9.8 0.0 0.0
14:04 11.2 11.1 99 1017.0 13.0 SE 13.0 0.0 0.0
14:05 11.2 11.1 99 1017.0 11.4 S 13.0 0.0 0.0
14:06 11.2 11.1 99 1017.1 9.8 S 13.0 0.0 0.0
14:07 11.2 11.1 99 1017.1 8.3 SE 13.0 0.0 0.0
14:08 11.2 11.1 99 1017.1 10.7 SE 13.0 0.0 0.0
14:09 11.2 11.1 99 1017.2 7.6 SSE 13.0 0.0 0.0
14:10 11.2 11.1 99 1016.9 6.9 S 13.0 0.0 0.0
14:11 11.3 11.2 99 1016.9 10.7 S 13.0 0.0 0.0
14:12 11.2 11.1 99 1017.0 9.2 S 13.0 0.0 0.0
14:14 11.2 11.1 99 1016.9 12.1 ESE 13.0 0.0 0.0
14:15 11.2 11.1 99 1017.0 10.7 S 13.6 0.0 0.0
14:16 11.2 11.1 99 1017.1 9.8 SW 13.6 0.0 0.0
14:17 11.2 11.1 99 1017.0 10.7 SE 13.6 0.0 0.0
14:18 11.2 11.1 99 1017.1 10.7 S 13.6 0.0 0.0
14:19 11.2 11.1 99 1017.0 9.2 S 13.6 0.0 0.0
14:20 11.2 11.1 99 1017.0 10.7 SE 13.6 0.0 0.0
14:21 11.2 11.1 99 1017.0 13.6 SE 13.6 0.0 0.0
14:22 11.2 11.1 99 1017.0 13.6 SE 13.6 0.0 0.0
14:23 11.2 11.1 99 1017.0 11.4 SE 13.6 0.0 0.0
14:24 11.2 11.1 99 1016.9 9.8 SE 13.6 0.0 0.0
14:25 11.2 11.1 99 1017.1 10.7 SE 13.6 0.0 0.0
14:26 11.2 11.1 99 1017.1 10.7 SE 13.6 0.0 0.0
14:27 11.2 11.1 99 1017.1 9.8 S 13.6 0.0 0.0
14:28 11.1 11.0 99 1017.0 9.2 S 13.6 0.0 0.0
14:29 11.2 11.1 99 1017.0 9.2 SE 13.6 0.0 0.0
14:30 11.2 11.1 99 1017.0 9.2 SE 13.6 0.0 0.0
14:31 11.2 11.1 99 1016.9 9.8 S 13.6 0.0 0.0
14:32 11.3 11.2 99 1016.8 9.8 SSW 13.0 0.0 0.0
14:33 11.3 11.2 99 1016.9 7.6 E 10.7 0.0 0.0
14:34 11.3 11.2 99 1016.9 6.9 S 10.7 0.0 0.0
14:35 11.3 11.2 99 1016.9 10.7 SE 10.7 0.0 0.0
14:36 11.3 11.2 99 1016.9 8.3 SE 11.4 0.0 0.0
14:37 11.3 11.2 99 1016.9 8.3 SE 11.4 0.0 0.0
14:38 11.3 11.2 99 1016.8 7.6 SE 11.4 0.0 0.0
14:39 11.3 11.2 99 1016.8 8.3 SE 11.4 0.0 0.0
14:40 11.3 11.2 99 1016.9 8.3 SE 11.4 0.0 0.0
14:41 11.3 11.2 99 1016.9 9.8 S 11.4 0.0 0.0
14:42 11.3 11.2 99 1016.9 9.2 S 11.4 0.0 0.0
14:43 11.3 11.2 99 1016.9 9.2 S 11.4 0.0 0.0
14:44 11.4 11.3 99 1016.8 10.7 S 11.4 0.0 0.0
14:45 11.4 11.3 99 1016.8 8.3 S 11.4 0.0 0.0
14:46 11.4 11.3 99 1016.8 6.9 S 10.7 0.0 0.0
14:47 11.4 11.3 99 1016.6 9.8 SE 10.7 0.0 0.0
14:48 11.4 11.3 99 1016.7 6.0 SE 10.7 0.0 0.0
14:49 11.4 11.3 99 1016.6 8.3 S 10.7 0.0 0.0
14:50 11.4 11.3 99 1016.7 8.3 S 10.7 0.0 0.0
14:51 11.4 11.3 99 1016.6 7.6 S 10.7 0.0 0.0
14:52 11.4 11.3 99 1016.5 5.4 SE 10.7 0.0 0.0
14:53 11.4 11.3 99 1016.7 6.0 S 10.7 0.0 0.0
14:54 11.4 11.3 99 1016.7 8.3 SW 10.7 0.0 0.0
14:55 11.5 11.4 99 1016.7 9.2 SE 9.8 0.0 0.0
14:56 11.5 11.4 99 1016.8 12.1 S 12.1 0.0 0.0
14:57 11.5 11.4 99 1016.8 10.7 SE 12.1 0.0 0.0
14:58 11.5 11.4 99 1016.8 9.2 SE 12.1 0.0 0.0
14:59 11.5 11.4 99 1016.8 12.1 S 12.1 0.0 0.0
15:00 11.5 11.4 99 1016.8 10.7 SE 12.1 0.0 0.0
15:01 11.5 11.4 99 1016.7 10.7 SE 12.1 0.0 0.0
15:02 11.5 11.4 99 1016.8 10.7 SE 12.1 0.0 0.0
15:03 11.5 11.4 99 1016.7 7.6 SE 12.1 0.0 0.0
15:04 11.5 11.4 99 1016.8 9.2 SE 12.1 0.0 0.0
15:05 11.5 11.4 99 1016.7 11.4 SE 12.1 0.0 0.0
15:06 11.5 11.4 99 1016.7 11.4 S 12.1 0.0 0.0
15:07 11.5 11.4 99 1016.6 11.4 SE 12.1 0.0 0.0
15:08 11.5 11.4 99 1016.7 10.7 SE 12.1 0.0 0.0
15:09 11.5 11.4 99 1016.8 8.3 SSE 11.4 0.0 0.0
15:10 11.5 11.4 99 1016.9 9.8 SE 11.4 0.0 0.0
15:11 11.5 11.4 99 1016.9 10.7 S 11.4 0.0 0.0
15:12 11.5 11.4 99 1016.9 13.0 S 13.0 0.0 0.0
15:13 11.5 11.4 99 1016.9 13.0 S 13.0 0.0 0.0
15:14 11.6 11.5 99 1016.8 11.4 SE 13.0 0.0 0.0
15:15 11.5 11.4 99 1016.8 11.4 S 13.0 0.0 0.0
15:16 11.6 11.5 99 1016.8 11.4 S 13.0 0.0 0.0
15:17 11.6 11.5 99 1016.8 7.6 S 13.0 0.0 0.0
15:18 11.6 11.5 99 1016.8 9.8 SE 13.0 0.0 0.0
15:19 11.6 11.5 99 1016.9 8.3 S 13.0 0.0 0.0
15:20 11.6 11.5 99 1016.9 9.8 SE 13.0 0.0 0.0
15:21 11.6 11.5 99 1017.0 10.7 S 13.0 0.0 0.0
15:22 11.6 11.5 99 1016.8 7.6 S 13.0 0.0 0.0
15:23 11.6 11.5 99 1016.8 9.8 SE 12.1 0.0 0.0
15:24 11.6 11.5 99 1016.9 11.4 SE 12.1 0.0 0.0
15:25 11.6 11.5 99 1016.8 9.2 SE 12.1 0.0 0.0
15:26 11.6 11.5 99 1017.0 13.6 S 13.6 0.0 0.0
15:27 11.6 11.5 99 1016.9 9.8 SE 13.6 0.0 0.0
15:28 11.6 11.5 99 1017.1 8.3 S 13.6 0.0 0.0
15:29 11.6 11.5 99 1017.1 8.3 S 13.6 0.0 0.0
15:30 11.6 11.5 99 1016.9 10.7 S 13.6 0.0 0.0
15:31 11.6 11.5 99 1017.0 12.1 S 13.6 0.0 0.0
15:32 11.6 11.5 99 1017.0 11.4 S 13.6 0.0 0.0
15:33 11.6 11.5 99 1017.1 7.6 S 13.6 0.0 0.0
15:34 11.6 11.5 99 1017.2 12.1 S 13.6 0.0 0.0
15:35 11.6 11.5 99 1017.2 9.2 S 13.6 0.0 0.0
15:36 11.6 11.5 99 1017.0 9.2 SE 13.6 0.0 0.0
15:37 11.6 11.5 99 1017.2 9.8 SE 12.1 0.0 0.0
15:38 11.6 11.5 99 1017.2 9.2 S 12.1 0.0 0.0
15:39 11.6 11.5 99 1017.2 13.0 S 13.0 0.0 0.0
15:40 11.6 11.5 99 1017.1 10.7 S 13.0 0.0 0.0
15:41 11.6 11.5 99 1017.0 11.4 S 13.0 0.0 0.0
15:42 11.6 11.5 99 1017.1 9.8 S 13.0 0.0 0.0
15:43 11.6 11.5 99 1017.1 9.2 S 13.0 0.0 0.0
15:44 11.6 11.5 99 1017.1 6.9 SE 13.0 0.0 0.0
15:45 11.6 11.5 99 1017.1 9.8 SE 13.0 0.0 0.0
15:46 11.6 11.5 99 1017.2 8.3 S 13.0 0.0 0.0
15:47 11.6 11.5 99 1017.2 8.3 SE 13.0 0.0 0.0
15:48 11.6 11.5 99 1017.2 9.8 SE 13.0 0.0 0.0
15:49 11.6 11.5 99 1017.3 12.1 SE 12.1 0.0 0.0
15:50 11.6 11.5 99 1017.1 8.3 SE 12.1 0.0 0.0
15:51 11.6 11.5 99 1017.2 9.8 SE 12.1 0.0 0.0
15:52 11.6 11.5 99 1017.3 9.2 S 12.1 0.0 0.0
15:53 11.6 11.5 99 1017.3 11.4 S 12.1 0.0 0.0
15:54 11.6 11.5 99 1017.2 9.2 SE 12.1 0.0 0.0
15:55 11.6 11.5 99 1017.3 9.8 S 12.1 0.0 0.0
15:56 11.6 11.5 99 1017.3 9.2 S 12.1 0.0 0.0
15:57 11.6 11.5 99 1017.3 7.6 S 12.1 0.0 0.0
15:58 11.6 11.5 99 1017.5 6.0 S 12.1 0.0 0.0
15:59 11.6 11.5 99 1017.5 7.6 S 12.1 0.0 0.0
16:00 11.6 11.5 99 1017.5 6.9 SW 11.4 0.0 0.0
16:01 11.6 11.5 99 1017.6 6.9 SW 11.4 0.0 0.0
16:02 11.6 11.5 99 1017.6 7.6 S 11.4 0.0 0.0
16:03 11.6 11.5 99 1017.7 8.3 SE 11.4 0.0 0.0
16:04 11.6 11.5 99 1017.7 6.9 SE 9.8 0.0 0.0
16:05 11.6 11.5 99 1017.5 7.6 SE 9.2 0.0 0.0
16:06 11.6 11.5 99 1017.6 8.3 S 8.3 0.0 0.0
16:07 11.6 11.5 99 1017.6 10.7 S 10.7 0.0 0.0
16:08 11.6 11.5 99 1017.5 6.9 S 10.7 0.0 0.0
16:09 11.6 11.5 99 1017.7 8.3 S 10.7 0.0 0.0
16:10 11.6 11.5 99 1017.4 8.3 SW 10.7 0.0 0.0
16:11 11.6 11.5 99 1017.3 9.2 S 10.7 0.0 0.0
16:12 11.6 11.5 99 1017.4 7.6 SE 10.7 0.0 0.0
16:13 11.6 11.5 99 1017.4 6.0 S 10.7 0.0 0.0
16:14 11.6 11.5 99 1017.5 7.6 E 10.7 0.0 0.0
16:15 11.6 11.5 99 1017.4 8.3 S 10.7 0.0 0.0
16:16 11.6 11.5 99 1017.2 6.9 NNE 10.7 0.0 0.0
16:17 11.6 11.5 99 1017.5 6.9 S 10.7 0.0 0.0
16:18 11.5 11.4 99 1017.5 6.9 S 9.2 0.0 0.0
16:19 11.5 11.4 99 1017.4 6.0 S 9.2 0.0 0.0
16:20 11.5 11.4 99 1017.4 6.0 SE 9.2 0.0 0.0
16:21 11.5 11.4 99 1017.5 6.0 SE 8.3 0.0 0.0
16:22 11.5 11.4 99 1017.5 6.0 S 8.3 0.0 0.0
16:23 11.5 11.4 99 1017.4 7.6 S 8.3 0.0 0.0
16:24 11.5 11.4 99 1017.4 6.0 SE 8.3 0.0 0.0
16:25 11.5 11.4 99 1017.5 7.6 S 7.6 0.0 0.0
16:26 11.5 11.4 99 1017.6 6.9 S 7.6 0.0 0.0
16:27 11.5 11.4 99 1017.7 6.0 S 7.6 0.0 0.0
16:28 11.5 11.4 99 1017.5 4.5 S 7.6 0.0 0.0
16:29 11.5 11.4 99 1017.5 6.0 S 7.6 0.0 0.0
16:30 11.5 11.4 99 1017.6 6.9 SE 7.6 0.0 0.0
16:31 11.5 11.4 99 1017.7 6.0 S 7.6 0.0 0.0
16:32 11.5 11.4 99 1017.4 6.9 SSW 7.6 0.0 0.0
16:33 11.5 11.4 99 1017.7 6.0 S 7.6 0.0 0.0
16:34 11.5 11.4 99 1017.6 6.0 S 7.6 0.0 0.0
16:35 11.5 11.4 99 1017.6 6.0 SE 7.6 0.0 0.0
16:36 11.5 11.4 99 1017.7 5.4 SE 6.9 0.0 0.0
16:37 11.5 11.4 99 1017.5 8.3 S 8.3 0.0 0.0
16:38 11.5 11.4 99 1017.4 6.0 S 8.3 0.0 0.0
16:39 11.5 11.4 99 1017.5 7.6 SE 8.3 0.0 0.0
16:40 11.5 11.4 99 1017.5 6.9 SE 8.3 0.0 0.0
16:41 11.5 11.4 99 1017.3 6.9 SE 8.3 0.0 0.0
16:42 11.5 11.4 99 1017.5 4.5 S 8.3 0.0 0.0
16:43 11.5 11.4 99 1017.3 6.9 SE 8.3 0.0 0.0
16:44 11.5 11.4 99 1017.5 7.6 SE 8.3 0.0 0.0
16:45 11.5 11.4 99 1017.5 6.9 SSE 8.3 0.0 0.0
16:46 11.5 11.4 99 1017.4 6.0 S 8.3 0.0 0.0
16:47 11.5 11.4 99 1017.5 6.0 SE 8.3 0.0 0.0
16:48 11.5 11.4 99 1017.4 6.0 S 8.3 0.0 0.0
16:49 11.5 11.4 99 1017.4 6.0 S 8.3 0.0 0.0
16:50 11.5 11.4 99 1017.4 4.5 S 8.3 0.0 0.0
16:51 11.5 11.4 99 1017.5 6.0 SE 8.3 0.0 0.0
16:52 11.5 11.4 99 1017.5 7.6 SE 7.6 0.0 0.0
16:53 11.5 11.4 99 1017.4 8.3 S 8.3 0.0 0.0
16:54 11.5 11.4 99 1017.5 6.0 SE 8.3 0.0 0.0
16:55 11.5 11.4 99 1017.3 5.4 S 8.3 0.0 0.0
16:56 11.5 11.4 99 1017.3 6.9 SE 8.3 0.0 0.0
16:57 11.5 11.4 99 1017.5 5.4 SE 8.3 0.0 0.0
16:58 11.5 11.4 99 1017.5 4.5 S 8.3 0.0 0.0
16:59 11.5 11.4 99 1017.4 6.9 SE 8.3 0.0 0.0
17:00 11.5 11.4 99 1017.4 6.0 S 8.3 0.0 0.0
17:01 11.5 11.4 99 1017.4 6.0 S 8.3 0.0 0.0
17:02 11.5 11.4 99 1017.5 7.6 S 8.3 0.0 0.0
17:03 11.5 11.4 99 1017.7 7.6 S 7.6 0.0 0.0
17:04 11.5 11.4 99 1017.7 8.3 SE 8.3 0.0 0.0
17:05 11.5 11.4 99 1017.7 6.9 E 8.3 0.0 0.0
17:06 11.5 11.4 99 1017.6 8.3 S 8.3 0.0 0.0
17:07 11.6 11.5 99 1017.6 5.4 S 8.3 0.0 0.0
17:08 11.5 11.4 99 1017.6 6.0 SE 8.3 0.0 0.0
17:09 11.6 11.5 99 1017.5 8.3 SE 8.3 0.0 0.0
17:10 11.5 11.4 99 1017.5 7.6 SE 8.3 0.0 0.0
17:11 11.5 11.4 99 1017.7 6.0 SE 8.3 0.0 0.0
17:12 11.5 11.4 99 1017.6 6.0 S 8.3 0.0 0.0
17:13 11.6 11.5 99 1017.7 8.3 SE 8.3 0.0 0.0
17:14 11.5 11.4 99 1017.4 7.6 SE 8.3 0.0 0.0
17:15 11.6 11.5 99 1017.5 6.9 SW 8.3 0.8 0.1
17:16 11.6 11.5 99 1017.5 6.9 SW 8.3 0.8 0.1
17:17 11.5 11.4 99 1017.5 7.6 SE 8.3 0.8 0.1
17:18 11.6 11.5 99 1017.4 5.4 SE 8.3 0.8 0.1
17:19 11.5 11.4 99 1017.4 6.9 SE 8.3 0.8 0.1
17:20 11.6 11.5 99 1017.4 8.3 SE 8.3 0.0 0.1
17:21 11.6 11.5 99 1017.5 7.6 SE 8.3 0.0 0.1
17:22 11.6 11.5 99 1017.3 5.4 SE 8.3 0.0 0.1
17:23 11.6 11.5 99 1017.5 5.4 SE 8.3 0.0 0.1
17:24 11.6 11.5 99 1017.5 4.5 SE 8.3 0.0 0.1
17:25 11.6 11.5 99 1017.7 4.5 E 8.3 0.0 0.1
17:26 11.6 11.5 99 1017.7 6.0 S 8.3 0.0 0.1
17:27 11.6 11.5 99 1017.6 7.6 SE 8.3 0.0 0.1
17:28 11.6 11.5 99 1017.5 6.0 S 8.3 0.0 0.1
17:30 11.6 11.5 99 1017.6 6.0 SE 7.6 0.0 0.1
17:31 11.6 11.5 99 1017.7 5.4 SE 7.6 0.0 0.1
17:32 11.6 11.5 99 1017.5 6.0 SE 7.6 0.0 0.1
17:33 11.6 11.5 99 1017.4 5.4 S 7.6 0.0 0.1
17:34 11.6 11.5 99 1017.4 6.0 SE 7.6 0.0 0.1
17:35 11.6 11.5 99 1017.4 5.4 SE 7.6 0.0 0.1
17:36 11.6 11.5 99 1017.4 6.0 S 7.6 0.0 0.1
17:37 11.6 11.5 99 1017.4 8.3 SE 8.3 0.0 0.1
17:38 11.6 11.5 99 1017.5 6.9 SE 8.3 0.0 0.1
17:39 11.6 11.5 99 1017.7 6.0 S 8.3 0.0 0.1
17:40 11.6 11.5 99 1017.7 7.6 SE 8.3 0.0 0.1
17:41 11.6 11.5 99 1017.7 7.6 SE 8.3 0.0 0.1
17:42 11.6 11.5 99 1017.7 6.0 SW 8.3 0.0 0.1
17:43 11.6 11.5 99 1017.6 3.8 SE 8.3 0.0 0.1
17:44 11.6 11.5 99 1017.6 6.9 SE 8.3 0.0 0.1
17:45 11.6 11.5 99 1017.5 6.9 E 8.3 0.0 0.1
17:46 11.6 11.5 99 1017.6 5.4 SE 8.3 0.0 0.1
17:47 11.6 11.5 99 1017.5 7.6 E 8.3 0.0 0.1
17:48 11.6 11.5 99 1017.4 6.9 SE 7.6 0.0 0.1
17:49 11.6 11.5 99 1017.5 4.5 NE 7.6 0.0 0.1
17:50 11.6 11.5 99 1017.5 4.5 SE 7.6 0.0 0.1
17:51 11.6 11.5 99 1017.5 9.2 SE 9.2 0.0 0.1
17:52 11.6 11.5 99 1017.3 6.0 SE 9.2 0.0 0.1
17:53 11.6 11.5 99 1017.4 6.9 S 9.2 0.0 0.1
17:55 11.6 11.5 99 1017.4 7.6 SE 9.2 0.0 0.1
17:56 11.6 11.5 99 1017.4 5.4 S 9.2 0.0 0.1
17:57 11.6 11.5 99 1017.4 7.6 SE 9.2 0.0 0.1
17:58 11.6 11.5 99 1017.5 7.6 S 9.2 0.0 0.1
17:59 11.6 11.5 99 1017.6 7.6 SE 9.2 0.0 0.1
18:00 11.6 11.5 99 1017.6 7.6 SE 9.2 0.0 0.1
18:01 11.6 11.5 99 1017.6 8.3 SE 8.3 0.0 0.1
18:02 11.6 11.5 99 1017.5 7.6 SE 8.3 0.0 0.1
18:03 11.6 11.5 99 1017.5 5.4 SE 8.3 0.0 0.1
18:04 11.6 11.5 99 1017.7 7.6 S 8.3 0.0 0.1
18:05 11.6 11.5 99 1017.7 7.6 S 8.3 0.0 0.1
18:06 11.6 11.5 99 1017.7 5.4 ESE 8.3 0.0 0.1
18:07 11.6 11.5 99 1017.8 6.0 S 8.3 0.0 0.1
18:08 11.6 11.5 99 1017.7 4.5 S 8.3 0.0 0.1
18:09 11.6 11.5 99 1017.7 6.0 S 8.3 0.0 0.1
18:10 11.6 11.5 99 1017.8 7.6 SE 8.3 0.0 0.1
18:11 11.6 11.5 99 1017.8 7.6 SE 8.3 0.0 0.1
18:12 11.6 11.5 99 1017.8 8.3 S 8.3 0.0 0.1
18:13 11.6 11.5 99 1017.8 8.3 SE 8.3 0.0 0.1
18:14 11.6 11.5 99 1017.9 6.0 S 8.3 0.0 0.1
18:15 11.6 11.5 99 1018.0 9.8 S 9.8 0.8 0.1
18:16 11.6 11.5 99 1017.8 6.9 SE 9.8 0.8 0.1
18:17 11.6 11.5 99 1017.8 7.6 S 9.8 0.8 0.1
18:18 11.6 11.5 99 1017.8 6.0 S 9.8 0.8 0.1
18:19 11.6 11.5 99 1017.8 9.8 S 9.8 0.8 0.1
18:20 11.6 11.5 99 1017.8 9.8 S 9.8 0.0 0.1
18:22 11.6 11.5 99 1017.7 7.6 SE 9.8 0.0 0.1
18:23 11.6 11.5 99 1017.9 6.0 SE 9.8 0.0 0.1
18:24 11.6 11.5 99 1017.8 7.6 SE 9.8 0.0 0.1
18:25 11.6 11.5 99 1017.8 7.6 SE 9.8 0.0 0.1
18:26 11.6 11.5 99 1017.7 6.9 SE 9.8 0.0 0.1
18:27 11.6 11.5 99 1017.8 6.9 S 9.8 0.0 0.1
18:28 11.6 11.5 99 1017.7 6.9 SE 9.8 0.0 0.1
18:29 11.6 11.5 99 1017.8 8.3 SE 9.8 0.0 0.1
18:30 11.6 11.5 99 1017.8 6.0 S 8.3 0.0 0.1
18:31 11.6 11.5 99 1017.8 6.0 S 8.3 0.0 0.1
18:32 11.7 11.6 99 1017.8 3.8 S 8.3 0.0 0.1
18:33 11.6 11.5 99 1017.9 3.8 S 8.3 0.0 0.1
18:34 11.6 11.5 99 1017.8 4.5 SE 8.3 0.0 0.1
18:35 11.7 11.6 99 1017.9 5.4 S 8.3 0.0 0.1
18:36 11.7 11.6 99 1017.8 5.4 S 8.3 0.0 0.1
18:37 11.7 11.6 99 1017.9 5.4 SE 8.3 0.0 0.1
18:38 11.6 11.5 99 1017.9 9.8 SE 9.8 0.0 0.1
18:39 11.7 11.6 99 1018.0 7.6 S 9.8 0.0 0.1
18:40 11.6 11.5 99 1017.8 6.0 S 9.8 0.0 0.1
18:41 11.6 11.5 99 1017.8 10.7 S 10.7 0.0 0.1
18:42 11.6 11.5 99 1017.7 6.0 SE 10.7 0.0 0.1
18:43 11.6 11.5 99 1017.8 7.6 SE 10.7 0.0 0.1
18:44 11.6 11.5 99 1017.7 9.8 SE 10.7 0.0 0.1
18:45 11.6 11.5 99 1017.6 6.0 S 10.7 0.0 0.1
18:46 11.6 11.5 99 1017.6 8.3 SE 10.7 0.0 0.1
18:47 11.6 11.5 99 1017.7 8.3 SE 10.7 0.0 0.1
18:49 11.6 11.5 99 1017.9 5.4 S 10.7 0.0 0.1
18:50 11.6 11.5 99 1017.7 6.0 SE 10.7 0.0 0.1
18:51 11.6 11.5 99 1017.8 5.4 S 9.8 0.0 0.1
18:52 11.6 11.5 99 1017.8 6.9 SW 9.8 0.0 0.1
18:53 11.6 11.5 99 1017.7 6.0 SE 9.8 0.0 0.1
18:54 11.6 11.5 99 1017.9 5.4 SSE 8.3 0.0 0.1
18:55 11.6 11.5 99 1017.8 6.9 SE 8.3 0.0 0.1
18:56 11.6 11.5 99 1017.9 5.4 S 8.3 0.0 0.1
18:57 11.6 11.5 99 1017.8 6.0 SE 8.3 0.0 0.1
18:58 11.6 11.5 99 1017.8 5.4 S 7.6 0.0 0.1
18:59 11.6 11.5 99 1017.9 3.1 SSE 6.9 0.0 0.1
19:00 11.6 11.5 99 1017.8 5.4 SE 6.9 0.0 0.1
19:01 11.6 11.5 99 1017.8 5.4 SE 6.9 0.0 0.1
19:02 11.6 11.5 99 1017.7 5.4 SE 6.9 0.0 0.1
19:03 11.6 11.5 99 1017.7 5.4 SE 6.9 0.0 0.1
19:04 11.6 11.5 99 1017.8 5.4 SE 6.9 0.0 0.1
19:05 11.6 11.5 99 1017.7 5.4 SE 6.9 0.0 0.1
19:06 11.6 11.5 99 1017.7 4.5 SE 6.0 0.0 0.1
19:07 11.6 11.5 99 1017.7 4.5 S 6.0 0.0 0.1
19:08 11.6 11.5 99 1017.7 2.2 S 5.4 0.0 0.1
19:09 11.6 11.5 99 1017.8 4.5 S 5.4 0.0 0.1
19:10 11.6 11.5 99 1017.7 3.8 S 5.4 0.0 0.1
19:11 11.6 11.5 99 1017.8 3.8 S 5.4 0.0 0.1
19:12 11.6 11.5 99 1017.8 3.8 S 5.4 0.0 0.1
19:13 11.6 11.5 99 1017.9 3.8 SE 5.4 0.0 0.1
19:14 11.6 11.5 99 1017.8 3.8 SE 5.4 0.0 0.1
19:15 11.6 11.5 99 1017.8 3.1 SE 4.5 0.0 0.1
19:16 11.6 11.5 99 1017.8 5.4 SE 5.4 0.0 0.1
19:17 11.6 11.5 99 1017.8 6.0 SE 6.0 0.0 0.1
19:18 11.6 11.5 99 1017.8 4.5 SE 6.0 0.0 0.1
19:19 11.6 11.5 99 1017.9 4.5 S 6.0 0.0 0.1
19:20 11.6 11.5 99 1017.8 4.5 SE 6.0 0.0 0.1
19:21 11.6 11.5 99 1017.9 6.0 SE 6.0 0.0 0.1
19:22 11.6 11.5 99 1018.0 6.9 SE 6.9 0.0 0.1
19:23 11.6 11.5 99 1017.9 5.4 SW 6.9 0.0 0.1
19:24 11.6 11.5 99 1018.0 6.0 S 6.9 0.0 0.1
19:25 11.6 11.5 99 1018.0 5.4 SSE 6.9 0.0 0.1
19:26 11.6 11.5 99 1017.9 4.5 SE 6.9 0.0 0.1
19:28 11.6 11.5 99 1017.9 3.1 SSE 6.9 0.0 0.1
19:29 11.6 11.5 99 1017.9 3.8 SE 6.9 0.0 0.1
19:30 11.6 11.5 99 1017.7 3.8 S 6.9 0.0 0.1
19:31 11.6 11.5 99 1017.9 6.0 SE 6.9 0.0 0.1
19:32 11.6 11.5 99 1017.9 6.9 SE 6.9 0.0 0.1
19:33 11.6 11.5 99 1018.1 6.0 SSE 6.9 0.0 0.1
19:34 11.6 11.5 99 1017.9 4.5 S 6.9 0.0 0.1
19:35 11.6 11.5 99 1018.0 4.5 S 6.9 0.0 0.1
19:36 11.6 11.5 99 1017.9 6.0 SE 6.9 0.0 0.1
19:37 11.6 11.5 99 1018.1 5.4 SE 6.9 0.0 0.1
19:38 11.6 11.5 99 1018.0 3.8 SE 6.9 0.0 0.1
19:39 11.6 11.5 99 1018.1 6.9 S 6.9 0.0 0.1
19:40 11.6 11.5 99 1018.0 5.4 S 6.9 0.0 0.1
19:41 11.6 11.5 99 1018.0 4.5 SE 6.9 0.0 0.1
19:42 11.6 11.5 99 1018.0 6.0 S 6.9 0.0 0.1
19:43 11.6 11.5 99 1018.1 5.4 S 6.9 0.0 0.1
19:44 11.6 11.5 99 1018.0 3.1 S 6.9 0.0 0.1
19:45 11.6 11.5 99 1018.2 4.5 S 6.9 0.0 0.1
19:46 11.6 11.5 99 1018.2 6.0 SE 6.9 0.0 0.1
19:47 11.6 11.5 99 1018.3 6.0 SE 6.9 0.0 0.1
19:48 11.6 11.5 99 1018.3 4.5 S 6.9 0.0 0.1
19:49 11.6 11.5 99 1018.2 6.0 S 6.9 0.0 0.1
19:50 11.6 11.5 99 1018.1 6.9 S 6.9 0.0 0.1
19:51 11.6 11.5 99 1018.2 6.0 SE 6.9 0.0 0.1
19:52 11.4 11.3 99 1018.3 8.3 SE 8.3 0.0 0.1
19:53 11.6 11.5 99 1018.2 7.6 SE 8.3 0.0 0.1
19:55 11.6 11.5 99 1018.4 6.9 S 8.3 0.0 0.1
19:56 11.6 11.5 99 1018.3 6.0 S 8.3 0.0 0.1
19:57 11.6 11.5 99 1018.3 7.6 S 8.3 0.0 0.1
19:58 11.6 11.5 99 1018.3 5.4 SE 8.3 0.0 0.1
19:59 11.6 11.5 99 1018.3 7.6 SE 8.3 0.0 0.1
20:00 11.6 11.5 99 1018.3 6.0 SE 8.3 0.0 0.1
20:01 11.6 11.5 99 1018.3 6.0 SE 8.3 0.0 0.1
20:02 11.6 11.5 99 1018.5 6.0 SE 8.3 0.0 0.1
20:03 11.6 11.5 99 1018.4 6.0 SE 7.6 0.0 0.1
20:04 11.6 11.5 99 1018.3 6.0 SE 7.6 0.0 0.1
20:05 11.6 11.5 99 1018.3 6.0 SE 7.6 0.0 0.1
20:06 11.6 11.5 99 1018.4 4.5 SE 7.6 0.0 0.1
20:07 11.5 11.4 99 1018.3 6.0 SE 7.6 0.0 0.1
20:08 11.5 11.4 99 1018.4 5.4 SE 7.6 0.0 0.1
20:09 11.6 11.5 99 1018.4 5.4 SE 7.6 0.0 0.1
20:10 11.6 11.5 99 1018.4 5.4 SE 6.0 0.0 0.1
20:11 11.5 11.4 99 1018.6 6.9 S 6.9 0.0 0.1
20:12 11.6 11.5 99 1018.5 6.9 SE 7.6 0.0 0.1
20:13 11.6 11.5 99 1018.4 6.0 SE 7.6 0.0 0.1
20:14 11.6 11.5 99 1018.6 7.6 SW 7.6 0.0 0.1
20:15 11.6 11.5 99 1018.5 6.0 SE 7.6 0.0 0.1
20:17 11.6 11.5 99 1018.6 6.9 SE 8.3 0.0 0.1
20:18 11.6 11.5 99 1018.5 6.0 SE 8.3 0.0 0.1
20:19 11.6 11.5 99 1018.4 5.4 SE 8.3 0.0 0.1
20:21 11.6 11.5 99 1018.5 6.0 S 8.3 0.0 0.1
20:22 11.6 11.5 99 1018.5 6.0 SE 8.3 0.0 0.1
20:23 11.6 11.5 99 1018.5 6.0 SE 8.3 0.0 0.1
20:24 11.6 11.5 99 1018.5 6.0 SE 8.3 0.0 0.1
20:25 11.6 11.5 99 1018.5 6.0 E 8.3 0.0 0.1
20:26 11.6 11.5 99 1018.6 6.0 SE 6.9 0.0 0.1
20:27 11.6 11.5 99 1018.4 4.5 SE 6.9 0.0 0.1
20:28 11.6 11.5 99 1018.6 7.6 SE 7.6 0.0 0.1
20:29 11.6 11.5 99 1018.5 5.4 ENE 7.6 0.0 0.1
20:30 11.6 11.5 99 1018.4 4.5 SE 7.6 0.0 0.1
20:31 11.6 11.5 99 1018.6 6.0 S 7.6 0.0 0.1
20:32 11.6 11.5 99 1018.6 6.9 E 7.6 0.0 0.1
20:33 11.6 11.5 99 1018.6 5.4 SE 7.6 0.0 0.1
20:34 11.6 11.5 99 1018.6 6.0 SSE 7.6 0.0 0.1
20:35 11.6 11.5 99 1018.7 5.4 S 7.6 0.0 0.1
20:36 11.6 11.5 99 1018.6 5.4 S 7.6 0.0 0.1
20:37 11.6 11.5 99 1018.7 5.4 NE 7.6 0.0 0.1
20:38 11.6 11.5 99 1018.7 5.4 SE 7.6 0.0 0.1
20:39 11.6 11.5 99 1018.6 6.9 SE 6.9 0.0 0.1
20:40 11.6 11.5 99 1018.8 6.9 S 6.9 0.0 0.1
20:41 11.7 11.6 99 1018.7 7.6 E 7.6 0.0 0.1
20:42 11.7 11.6 99 1018.8 6.0 SE 7.6 0.0 0.1
20:43 11.7 11.6 99 1018.8 8.3 SE 8.3 0.0 0.1
20:44 11.7 11.6 99 1018.7 5.4 SE 8.3 0.0 0.1
20:45 11.7 11.6 99 1018.8 6.9 SE 8.3 0.0 0.1
20:46 11.7 11.6 99 1018.9 8.3 SE 8.3 0.0 0.1
20:47 11.7 11.6 99 1018.9 8.3 SE 8.3 0.0 0.1
20:48 11.7 11.6 99 1018.8 5.4 S 8.3 0.0 0.1
20:50 11.7 11.6 99 1018.8 8.3 SE 8.3 0.0 0.1
20:51 11.7 11.6 99 1018.9 7.6 S 8.3 0.0 0.1
20:52 11.7 11.6 99 1019.0 6.0 E 8.3 0.0 0.1
20:53 11.7 11.6 99 1018.9 5.4 SE 8.3 0.0 0.1
20:54 11.7 11.6 99 1018.9 6.0 S 8.3 0.0 0.1
20:55 11.7 11.6 99 1019.0 4.5 ESE 8.3 0.0 0.1
20:56 11.7 11.6 99 1019.1 5.4 SE 8.3 0.0 0.1
20:57 11.7 11.6 99 1018.9 6.9 SE 8.3 0.0 0.1
20:58 11.7 11.6 99 1018.9 6.9 SE 8.3 0.0 0.1
20:59 11.7 11.6 99 1018.8 5.4 SE 8.3 0.0 0.1
21:00 11.7 11.6 99 1018.9 6.0 SE 8.3 0.0 0.1
21:01 11.7 11.6 99 1018.8 6.0 SE 7.6 0.0 0.1
21:02 11.7 11.6 99 1018.7 6.0 SE 7.6 0.0 0.1
21:03 11.7 11.6 99 1018.8 6.0 SE 6.9 0.0 0.1
21:04 11.7 11.6 99 1018.8 6.0 SE 6.9 0.0 0.1
21:05 11.7 11.6 99 1018.9 6.0 SE 6.9 0.0 0.1
21:06 11.7 11.6 99 1018.8 6.9 SE 6.9 0.0 0.1
21:07 11.7 11.6 99 1018.8 5.4 SE 6.9 0.0 0.1
21:08 11.7 11.6 99 1018.6 6.9 E 6.9 0.0 0.1
21:09 11.7 11.6 99 1018.8 5.4 SE 6.9 0.0 0.1
21:10 11.7 11.6 99 1018.8 6.0 SE 6.9 0.0 0.1
21:11 11.7 11.6 99 1018.8 6.0 SE 6.9 0.0 0.1
21:12 11.8 11.7 99 1018.9 4.5 SE 6.9 0.0 0.1
21:13 11.8 11.7 99 1018.9 4.5 SE 6.9 0.0 0.1
21:14 11.7 11.6 99 1018.8 5.4 SE 6.9 0.0 0.1
21:15 11.7 11.6 99 1018.8 4.5 SE 6.9 0.0 0.1
21:16 11.7 11.6 99 1018.9 6.9 W 6.9 0.0 0.1
21:17 11.7 11.6 99 1018.8 5.4 S 6.9 0.0 0.1
21:18 11.7 11.6 99 1018.8 6.9 E 6.9 0.0 0.1
21:19 11.8 11.7 99 1018.8 6.0 NW 6.9 0.0 0.1
21:20 11.7 11.6 99 1018.9 6.0 E 6.9 0.0 0.1
21:21 11.7 11.6 99 1018.8 6.0 S 6.9 0.0 0.1
21:22 11.7 11.6 99 1018.7 4.5 NE 6.9 0.0 0.1
21:23 11.8 11.7 99 1018.6 4.5 E 6.9 0.0 0.1
21:24 11.8 11.7 99 1018.7 3.8 SE 6.9 0.0 0.1
21:25 11.8 11.7 99 1018.7 4.5 E 6.9 0.0 0.1
21:26 11.8 11.7 99 1018.7 6.0 E 6.9 0.0 0.1
21:27 11.8 11.7 99 1018.9 4.5 NE 6.9 0.0 0.1
21:28 11.8 11.7 99 1018.8 3.8 ENE 6.0 0.0 0.1
21:30 11.8 11.7 99 1018.8 4.5 SE 6.0 0.0 0.1
21:31 11.8 11.7 99 1018.8 4.5 W 6.0 0.0 0.1
21:32 11.8 11.7 99 1018.8 4.5 E 6.0 0.0 0.1
21:33 11.8 11.7 99 1018.8 4.5 SW 6.0 0.0 0.1
21:34 11.8 11.7 99 1018.8 3.1 E 6.0 0.0 0.1
21:35 11.8 11.7 99 1018.8 4.5 SE 6.0 0.0 0.1
21:36 11.8 11.7 99 1018.8 2.2 SE 5.4 0.0 0.1
21:37 11.8 11.7 99 1018.7 3.1 N 5.4 0.0 0.1
21:38 11.8 11.7 99 1018.9 6.9 E 6.9 0.0 0.1
21:39 11.8 11.7 99 1018.9 3.8 E 6.9 0.0 0.1
21:40 11.8 11.7 99 1018.8 5.4 N 6.9 0.0 0.1
21:41 11.8 11.7 99 1018.9 2.2 SE 6.9 0.0 0.1
21:42 11.8 11.7 99 1018.9 4.5 NNW 6.9 0.0 0.1
21:43 11.8 11.7 99 1019.0 3.1 SSW 6.9 0.0 0.1
21:44 11.8 11.7 99 1019.0 5.4 SE 6.9 0.0 0.1
21:45 11.8 11.7 99 1019.0 4.5 SE 6.9 0.0 0.1
21:46 11.9 11.8 99 1018.9 8.3 SE 8.3 0.0 0.1
21:47 11.8 11.7 99 1019.0 5.4 SE 8.3 0.0 0.1
21:48 11.8 11.7 99 1019.0 3.8 E 8.3 0.0 0.1
21:49 11.8 11.7 99 1018.9 6.0 NE 8.3 0.0 0.1
21:50 11.8 11.7 99 1018.9 6.9 SE 8.3 0.0 0.1
21:51 11.8 11.7 99 1019.0 3.1 SE 8.3 0.0 0.1
21:52 11.9 11.8 99 1019.1 5.4 SE 8.3 0.0 0.1
21:53 11.9 11.8 99 1018.8 6.0 N 8.3 0.0 0.1
21:54 11.9 11.8 99 1018.8 6.0 E 8.3 0.0 0.1
21:55 11.9 11.8 99 1018.8 7.6 SE 8.3 0.0 0.1
21:56 11.9 11.8 99 1018.9 4.5 SE 8.3 0.0 0.1
21:58 11.9 11.8 99 1019.0 6.0 S 8.3 0.0 0.1
21:59 11.9 11.8 99 1019.0 6.9 SE 8.3 0.0 0.1
22:00 11.9 11.8 99 1019.1 6.9 SE 8.3 0.0 0.1
22:01 11.9 11.8 99 1019.1 6.9 SE 8.3 0.0 0.1
22:02 11.9 11.8 99 1019.1 6.9 SE 8.3 0.0 0.1
22:03 11.9 11.8 99 1019.1 6.9 SE 8.3 0.0 0.1
22:04 11.9 11.8 99 1019.0 6.9 SE 8.3 0.0 0.1
22:05 11.9 11.8 99 1019.0 6.9 SE 8.3 0.0 0.1
22:06 11.9 11.8 99 1019.1 5.4 SE 6.9 0.0 0.1
22:07 11.9 11.8 99 1019.1 4.5 SE 6.9 0.0 0.1
22:08 11.9 11.8 99 1019.0 5.4 SE 6.9 0.0 0.1
22:09 11.9 11.8 99 1019.0 3.8 SSW 6.9 0.0 0.1
22:10 11.9 11.8 99 1018.9 5.4 SE 6.9 0.0 0.1
22:11 11.9 11.8 99 1019.0 6.0 SE 6.9 0.0 0.1
22:12 11.9 11.8 99 1019.0 6.0 SE 6.9 0.0 0.1
22:13 11.9 11.8 99 1019.0 6.0 N 6.9 0.0 0.1
22:14 11.9 11.8 99 1018.9 4.5 SE 6.9 0.0 0.1
22:15 11.9 11.8 99 1019.0 9.2 E 9.2 0.0 0.1
22:16 11.9 11.8 99 1018.9 3.8 N 9.2 0.0 0.1
22:17 11.9 11.8 99 1018.9 4.5 SE 9.2 0.0 0.1
22:18 11.9 11.8 99 1019.0 6.9 SE 9.2 0.0 0.1
22:19 11.9 11.8 99 1018.8 7.6 SE 9.2 0.0 0.1
22:20 11.9 11.8 99 1019.0 6.9 ESE 9.2 0.0 0.1
22:21 11.8 11.7 99 1019.2 5.4 ESE 9.2 0.0 0.1
22:23 11.9 11.8 99 1019.0 5.4 SE 9.2 0.0 0.1
22:24 11.8 11.7 99 1019.1 6.9 SE 9.2 0.0 0.1
22:25 11.8 11.7 99 1019.1 9.8 SE 9.8 0.0 0.1
22:26 11.8 11.7 99 1019.0 5.4 SE 9.8 0.0 0.1
22:27 11.8 11.7 99 1018.9 8.3 S 9.8 0.0 0.1
22:28 11.8 11.7 99 1019.0 8.3 SE 9.8 0.0 0.1
22:29 11.8 11.7 99 1019.0 4.5 SE 9.8 0.0 0.1
22:30 11.8 11.7 99 1018.9 2.2 N 9.8 0.0 0.1
22:31 11.8 11.7 99 1018.9 2.2 S 9.8 0.0 0.1
22:32 11.8 11.7 99 1018.9 4.5 SE 9.8 0.0 0.1
22:33 11.8 11.7 99 1018.9 9.2 NW 9.8 0.0 0.1
22:34 11.8 11.7 99 1019.2 5.4 E 9.8 0.0 0.1
22:35 11.8 11.7 99 1019.0 3.1 N 9.8 0.0 0.1
22:36 11.8 11.7 99 1019.1 4.5 NE 9.2 0.0 0.1
22:37 11.8 11.7 99 1019.1 3.8 SE 9.2 0.0 0.1
22:38 11.8 11.7 99 1019.3 4.5 SE 9.2 0.0 0.1
22:39 11.8 11.7 99 1019.2 5.4 ENE 9.2 0.0 0.1
22:40 11.8 11.7 99 1019.1 4.5 SW 9.2 0.0 0.1
22:41 11.8 11.7 99 1019.1 4.5 SE 9.2 0.0 0.1
22:42 11.8 11.7 99 1019.1 6.0 SE 9.2 0.0 0.1
22:43 11.8 11.7 99 1019.0 3.1 NE 9.2 0.0 0.1
22:44 11.8 11.7 99 1019.1 3.8 S 6.0 0.0 0.1
22:45 11.8 11.7 99 1019.1 6.9 E 6.9 0.0 0.1
22:46 11.7 11.6 99 1019.1 5.4 NW 6.9 0.0 0.1
22:47 11.8 11.7 99 1019.0 4.5 E 6.9 0.0 0.1
22:48 11.7 11.6 99 1019.0 6.0 SE 6.9 0.0 0.1
22:49 11.8 11.7 99 1019.2 6.0 SE 6.9 0.0 0.1
22:51 11.7 11.6 99 1019.2 9.2 NE 9.2 0.0 0.1
22:52 11.7 11.6 99 1019.2 5.4 NW 9.2 0.0 0.1
22:53 11.8 11.7 99 1019.3 5.4 S 9.2 0.0 0.1
22:54 11.8 11.7 99 1019.2 5.4 S 9.2 0.0 0.1
22:55 11.7 11.6 99 1019.0 3.8 N 9.2 0.0 0.1
22:56 11.7 11.6 99 1019.2 6.0 S 9.2 0.0 0.1
22:57 11.7 11.6 99 1019.1 3.8 E 9.2 0.0 0.1
22:58 11.7 11.6 99 1019.1 6.9 E 9.2 0.0 0.1
22:59 11.7 11.6 99 1019.3 3.8 SW 9.2 0.0 0.1
23:00 11.7 11.6 99 1019.3 3.8 SW 9.2 0.0 0.1
23:01 11.7 11.6 99 1019.1 3.8 SW 9.2 0.0 0.1
23:02 11.7 11.6 99 1019.2 3.8 SW 7.6 0.0 0.1
23:03 11.7 11.6 99 1019.2 3.8 SW 7.6 0.0 0.1
23:04 11.7 11.6 99 1019.2 3.8 SW 7.6 0.0 0.1
23:05 11.7 11.6 99 1019.3 3.8 SW 7.6 0.0 0.1
23:06 11.7 11.6 99 1019.3 4.5 SE 7.6 0.0 0.1
23:07 11.7 11.6 99 1019.2 6.9 SE 7.6 0.0 0.1
23:08 11.7 11.6 99 1019.4 6.0 S 7.6 0.0 0.1
23:09 11.7 11.6 99 1019.4 3.1 NE 7.6 0.0 0.1
23:10 11.7 11.6 99 1019.4 3.8 SE 6.9 0.0 0.1
23:11 11.7 11.6 99 1019.4 5.4 SE 6.9 0.0 0.1
23:12 11.7 11.6 99 1019.5 6.9 SE 6.9 0.0 0.1
23:13 11.7 11.6 99 1019.5 6.9 SE 6.9 0.0 0.1
23:14 11.7 11.6 99 1019.6 4.5 NE 6.9 0.0 0.1
23:15 11.7 11.6 99 1019.7 5.4 S 7.6 0.0 0.1
23:16 11.7 11.6 99 1019.7 5.4 S 7.6 0.0 0.1
23:17 11.7 11.6 99 1019.7 4.5 SE 7.6 0.0 0.1
23:18 11.7 11.6 99 1019.8 5.4 SE 7.6 0.0 0.1
23:19 11.7 11.6 99 1019.8 6.0 SE 7.6 0.0 0.1
23:20 11.7 11.6 99 1019.8 4.5 SSW 7.6 0.0 0.1
23:21 11.7 11.6 99 1019.9 4.5 SE 7.6 0.0 0.1
23:22 11.7 11.6 99 1019.9 6.0 SE 7.6 0.0 0.1
23:23 11.7 11.6 99 1019.9 4.5 SE 7.6 0.0 0.1
23:24 11.7 11.6 99 1020.0 4.5 S 7.6 0.0 0.1
23:25 11.7 11.6 99 1020.1 4.5 SE 7.6 0.0 0.1
23:26 11.7 11.6 99 1019.9 4.5 SE 6.0 0.0 0.1
23:27 11.7 11.6 99 1020.0 6.0 SE 6.0 0.0 0.1
23:28 11.7 11.6 99 1020.1 6.0 E 6.0 0.0 0.1
23:29 11.7 11.6 99 1020.0 5.4 SE 6.0 0.0 0.1
23:30 11.7 11.6 99 1019.9 3.8 SE 6.0 0.0 0.1
23:31 11.7 11.6 99 1020.0 6.0 SE 6.0 0.0 0.1
23:32 11.7 11.6 99 1020.1 5.4 SE 6.0 0.0 0.1
23:33 11.7 11.6 99 1020.1 4.5 SE 6.0 0.0 0.1
23:35 11.7 11.6 99 1020.1 6.0 SE 6.0 0.0 0.1
23:36 11.7 11.6 99 1020.0 4.5 SE 6.0 0.0 0.1
23:37 11.7 11.6 99 1020.0 3.8 SE 6.0 0.0 0.1
23:38 11.7 11.6 99 1020.0 5.4 SE 6.0 0.0 0.1
23:39 11.7 11.6 99 1020.1 4.5 SE 7.6 0.0 0.1
23:40 11.7 11.6 99 1020.0 4.5 SE 7.6 0.0 0.1
23:41 11.7 11.6 99 1020.0 3.1 SE 7.6 0.0 0.1
23:42 11.7 11.6 99 1020.2 3.8 SE 7.6 0.0 0.1
23:43 11.7 11.6 99 1020.2 4.5 S 7.6 0.0 0.1
23:44 11.7 11.6 99 1020.2 4.5 S 7.6 0.0 0.1
23:45 11.7 11.6 99 1020.1 2.2 E 7.6 0.0 0.1
23:46 11.7 11.6 99 1020.1 4.5 SE 7.6 0.0 0.1
23:47 11.7 11.6 99 1020.1 4.5 S 7.6 0.0 0.1
23:48 11.7 11.6 99 1020.1 6.0 S 7.6 0.0 0.1
23:49 11.7 11.6 99 1020.2 3.1 SE 7.6 0.0 0.1
23:50 11.7 11.6 99 1020.2 3.1 SE 6.0 0.0 0.1
23:51 11.7 11.6 99 1020.1 5.4 SE 6.0 0.0 0.1
23:52 11.7 11.6 99 1020.3 5.4 E 6.0 0.0 0.1
23:53 11.7 11.6 99 1020.2 5.4 SE 6.0 0.0 0.1
23:54 11.7 11.6 99 1020.1 5.4 E 6.0 0.0 0.1
23:55 11.7 11.6 99 1020.1 3.8 SE 6.0 0.0 0.1
23:56 11.7 11.6 99 1020.1 3.8 NE 6.0 0.0 0.1
23:57 11.7 11.6 99 1020.2 4.5 SE 6.0 0.0 0.1
23:58 11.7 11.6 99 1020.2 3.8 S 5.4 0.0 0.1
23:59 11.8 11.7 99 1020.2 4.5 NE 5.4 0.0 0.1

UK - WEATHER STATION TOPSITES - UK World Weather Websites

This is a private weather station, never base important decisions or events on data from this weather station. Although every effort has been made to make the data as accurate as possible it does not meet MetOffice standards. It is proved as a guide of local weather conditions. We accept no liability for any loss which may arise from use of the data.

Copyright © Carnkie Weather 2009 - 2018.